[{"header": {"dx": 0.06612293990616946, "dy": 0.0552356325346848, "nx": 98, "ny": 59, "la1": 35.046912555036876, "la2": 31.78801023549047, "lo1": -121.43107172385933, "lo2": -114.95102361305473, "refTime": "2026041220", "parameterCategory": 1, "parameterNumber": 2}, "data": [3.07, 3.35, 3.88, 4.27, 4.4, 4.4, 4.4, 4.55, 5.08, 5.21, 5.29, 5.75, 7.82, 7.81, 7.81, 7.81, 8.18, 6.45, 5.69, 4.75, 4.75, 5.03, 5.24, 6.01, 6.73, 7.4, 7.68, 8.42, 8.42, 7.81, 6.55, 5.69, 5.06, 3.13, 0.0, 0.0, 0.96, 2.76, 4.11, 4.54, 4.22, 4.0, 4.02, 4.8, 6.63, 7.18, 7.51, 7.38, 7.38, 7.38, 7.63, 8.18, 9.36, 10.51, 11.25, 11.25, 11.25, 10.58, 10.63, 10.66, 10.66, 9.4, 6.83, 5.06, 5.63, 6.56, 7.49, 7.36, 8.18, 9.11, 9.7, 10.92, 11.66, 12.15, 10.96, 7.82, 2.2, -0.0, -0.0, -0.0, -0.0, -0.0, -0.0, -0.0, -0.0, 0.74, 0.89, 1.76, 1.69, 1.69, 1.69, 1.69, 2.71, 3.51, 4.44, 4.44, 2.71, 0.85, 3.35, 3.72, 4.0, 4.55, 4.93, 4.65, 4.65, 5.21, 5.29, 5.49, 5.49, 7.15, 7.81, 7.67, 8.37, 8.37, 7.15, 6.87, 6.28, 4.29, 5.03, 5.03, 5.31, 6.98, 6.11, 6.73, 7.76, 8.12, 7.76, 7.06, 5.1, 4.34, 5.76, 5.24, 1.27, 0.0, 0.0, 1.7, 2.76, 2.95, 3.9, 4.66, 5.36, 5.89, 7.36, 7.38, 7.38, 7.38, 7.38, 7.63, 8.18, 8.95, 9.8, 10.82, 11.17, 11.2, 10.84, 10.84, 11.25, 11.28, 10.66, 7.59, 4.92, 4.68, 5.8, 6.4, 6.6, 7.45, 8.18, 10.01, 10.51, 11.28, 12.23, 11.6, 9.77, 5.58, 1.41, -0.0, -0.0, -0.0, -0.0, -0.0, -0.0, -0.0, -0.0, 0.74, 0.89, 1.76, 1.69, 1.69, 1.69, 1.69, 2.71, 3.51, 4.44, 4.44, 2.71, 0.85, 3.72, 4.0, 4.07, 4.65, 5.21, 5.21, 4.94, 4.94, 5.29, 5.49, 5.86, 5.59, 8.18, 7.81, 8.05, 7.81, 7.81, 6.79, 5.37, 5.03, 4.16, 4.75, 5.03, 6.32, 6.64, 6.01, 7.06, 7.06, 7.06, 5.36, 4.4, 4.4, 5.29, 6.14, 3.82, 0.0, 0.0, 0.88, 1.8, 3.58, 4.8, 5.59, 6.31, 6.94, 7.12, 7.51, 7.51, 7.78, 7.38, 7.38, 8.18, 9.8, 10.58, 10.92, 10.18, 9.4, 9.7, 10.43, 11.9, 12.27, 9.66, 5.76, 3.91, 4.71, 4.91, 5.79, 6.47, 8.06, 9.11, 10.12, 10.98, 11.28, 11.26, 10.63, 7.82, 3.22, -0.0, -1.08, -0.88, -0.0, -0.0, -0.0, -0.0, -0.0, 0.77, 1.54, 1.54, 0.82, 0.85, 0.85, 1.76, 1.76, 2.59, 4.25, 4.92, 4.92, 3.51, 1.69, 4.0, 4.37, 4.29, 4.65, 5.21, 4.94, 4.94, 5.29, 5.29, 5.29, 5.29, 5.86, 7.81, 8.05, 8.18, 7.81, 7.81, 6.91, 5.37, 4.16, 4.58, 4.29, 5.37, 6.11, 6.73, 7.56, 6.11, 5.69, 4.68, 3.63, 3.36, 4.25, 4.92, 5.32, 4.37, 4.74, 5.58, 5.94, 4.29, 4.42, 5.29, 5.86, 6.7, 6.7, 7.64, 8.12, 8.01, 7.78, 7.78, 8.01, 8.85, 9.89, 10.58, 10.24, 8.76, 8.3, 8.76, 10.58, 12.27, 10.9, 7.48, 4.06, 4.13, 5.06, 4.81, 5.79, 7.45, 8.36, 9.37, 10.15, 10.63, 10.29, 10.66, 8.88, 5.82, -0.0, -1.41, -2.2, -1.99, -1.03, -0.83, -0.0, -0.0, -0.0, 0.85, 1.76, 1.7, 0.89, -0.0, 0.89, 1.68, 2.47, 3.36, 4.25, 5.29, 5.29, 3.36, 1.69, 4.0, 4.37, 4.65, 5.01, 4.94, 5.29, 5.29, 5.29, 5.29, 5.49, 5.29, 5.49, 7.82, 7.96, 7.81, 7.81, 7.44, 6.44, 5.06, 4.16, 5.03, 4.75, 5.37, 6.28, 6.18, 6.63, 5.69, 4.37, 2.97, 2.83, 3.49, 4.2, 4.2, 4.2, 4.05, 4.05, 5.95, 6.87, 5.21, 5.14, 6.08, 5.86, 6.45, 7.64, 7.64, 8.12, 8.42, 8.01, 8.42, 8.42, 9.26, 9.96, 9.89, 9.48, 8.01, 7.82, 9.34, 10.66, 11.28, 8.6, 5.0, 3.25, 4.07, 4.95, 4.81, 5.79, 7.59, 8.18, 9.89, 9.7, 9.89, 9.62, 9.56, 8.43, 3.48, -1.58, -2.84, -3.16, -3.93, -2.76, -1.6, -1.01, -0.89, -0.0, 0.85, 1.64, 3.44, 2.61, -0.0, -0.0, 0.85, 1.68, 3.49, 4.4, 5.29, 4.4, 2.59, 1.76, 4.55, 4.55, 4.65, 5.01, 4.94, 5.29, 5.29, 5.29, 5.49, 5.49, 5.29, 5.49, 7.2, 7.58, 8.0, 7.82, 7.15, 6.45, 4.58, 3.55, 4.87, 4.95, 6.01, 6.01, 5.37, 5.06, 3.91, 2.54, 2.7, 4.05, 4.5, 4.5, 4.5, 4.12, 4.12, 4.83, 6.04, 6.95, 6.18, 4.4, 5.14, 6.3, 6.94, 7.51, 8.42, 8.42, 8.42, 8.85, 8.53, 8.64, 9.0, 9.56, 9.8, 9.06, 8.12, 8.31, 9.67, 10.29, 9.17, 6.7, 4.21, 3.28, 4.19, 4.95, 5.79, 6.8, 7.36, 8.31, 9.6, 10.01, 9.8, 9.96, 9.34, 7.76, 3.48, -2.68, -3.58, -3.82, -4.77, -4.29, -3.49, -1.96, -0.89, -0.0, 0.86, 2.54, 4.1, 3.42, 0.89, -0.0, -0.0, 1.76, 3.65, 4.56, 5.21, 4.2, 1.68, 0.85, 4.55, 4.93, 4.65, 4.65, 5.21, 4.94, 5.29, 5.29, 5.49, 5.49, 5.29, 5.49, 7.82, 7.2, 8.4, 6.79, 7.15, 6.45, 4.95, 4.16, 4.16, 5.37, 5.77, 6.11, 5.72, 5.03, 3.6, 2.33, 4.0, 5.15, 5.31, 3.4, 3.6, 3.6, 3.15, 4.83, 6.04, 7.9, 6.58, 3.63, 3.92, 4.9, 7.19, 8.23, 8.51, 9.17, 9.56, 8.93, 8.38, 8.49, 9.08, 9.17, 9.8, 9.89, 9.0, 9.05, 10.04, 9.62, 8.3, 5.6, 3.34, 3.28, 4.95, 5.67, 6.47, 7.23, 8.31, 8.45, 9.24, 10.12, 10.3, 10.01, 9.9, 8.18, 4.89, 1.6, -2.68, -3.2, -4.24, -4.92, -4.11, -1.84, -0.0, 0.81, 2.47, 3.53, 4.93, 3.39, -0.0, -0.89, -0.0, 2.35, 4.2, 5.21, 4.34, 2.57, 1.84, 0.93, 5.08, 4.93, 4.65, 4.65, 5.21, 5.21, 5.21, 5.58, 5.75, 5.75, 5.58, 5.58, 6.91, 6.91, 7.81, 6.06, 6.7, 6.45, 4.83, 4.68, 4.87, 5.15, 5.58, 5.15, 5.06, 4.75, 3.68, 2.54, 5.03, 5.37, 3.68, 2.54, 2.83, 2.83, 4.12, 4.71, 6.01, 6.32, 6.87, 5.32, 4.23, 5.0, 6.97, 8.24, 9.17, 9.8, 9.62, 9.0, 7.35, 8.15, 7.68, 9.26, 10.24, 10.3, 9.66, 9.65, 9.67, 8.93, 6.7, 5.06, 3.34, 3.28, 4.91, 5.62, 7.36, 8.31, 8.45, 8.3, 9.48, 10.63, 11.04, 10.96, 10.73, 7.82, 4.89, 3.16, 4.02, 2.53, 0.0, -0.0, 0.74, -0.79, 0.74, 2.2, 3.66, 5.02, 5.0, 2.47, -0.85, -0.85, -0.0, 2.31, 3.63, 4.34, 3.63, 1.94, 0.89, 0.89, 5.08, 5.08, 4.65, 4.65, 5.21, 5.21, 5.21, 5.21, 5.75, 5.75, 5.21, 4.84, 6.98, 6.01, 6.79, 6.79, 6.79, 5.53, 4.5, 4.21, 5.59, 5.69, 5.06, 4.74, 5.15, 5.06, 4.02, 4.29, 5.37, 5.37, 2.66, 1.32, 2.69, 4.0, 5.1, 6.11, 5.37, 5.31, 6.58, 6.24, 6.5, 6.76, 7.56, 8.53, 9.76, 9.27, 9.76, 8.22, 7.18, 7.18, 9.08, 9.34, 9.96, 9.96, 10.01, 10.04, 9.0, 8.22, 5.76, 4.01, 3.25, 4.04, 4.87, 6.52, 7.25, 9.06, 9.06, 9.17, 9.62, 10.63, 11.27, 10.52, 10.18, 6.94, 4.57, 4.77, 5.36, 5.36, 4.8, 3.21, 4.04, 1.43, 2.85, 3.78, 4.39, 5.77, 4.6, 0.89, -2.4, -1.55, -0.0, 1.55, 2.4, 3.45, 3.63, 1.75, 0.89, 0.89, 5.08, 5.08, 4.93, 4.65, 4.65, 5.21, 5.21, 5.21, 5.37, 5.37, 5.6, 5.08, 5.08, 5.21, 7.2, 7.28, 6.45, 5.82, 5.21, 5.59, 5.31, 6.01, 6.01, 6.01, 5.69, 5.37, 5.06, 4.02, 4.29, 4.75, 3.91, 4.14, 3.8, 4.96, 6.01, 6.01, 5.37, 4.16, 6.58, 7.9, 6.83, 7.9, 8.31, 8.65, 9.04, 9.3, 9.0, 8.65, 7.82, 8.12, 8.85, 9.17, 9.62, 9.26, 9.26, 9.34, 8.31, 7.13, 4.4, 2.53, 4.04, 4.81, 5.62, 6.73, 8.18, 9.17, 9.17, 8.53, 8.94, 9.81, 9.77, 9.6, 8.67, 6.02, 3.58, 3.58, 4.92, 5.26, 3.91, 4.46, 6.05, 7.5, 5.25, 5.11, 5.68, 5.86, 3.8, -0.0, -3.11, -1.72, -0.0, 0.78, 1.73, 2.83, 2.83, 2.7, 1.68, 0.85, 5.31, 5.08, 4.93, 4.65, 4.65, 5.21, 5.21, 5.47, 5.6, 5.6, 5.6, 5.47, 5.08, 5.31, 6.99, 6.82, 6.45, 4.74, 4.74, 4.65, 5.84, 5.84, 6.18, 6.55, 6.98, 6.98, 5.69, 4.37, 5.31, 6.01, 6.63, 4.87, 5.15, 5.69, 6.79, 7.56, 6.01, 6.58, 7.35, 8.38, 7.97, 8.38, 8.38, 9.48, 8.58, 8.03, 8.03, 6.95, 7.27, 7.48, 8.18, 9.11, 8.84, 8.31, 8.05, 8.3, 7.64, 5.36, 1.75, 1.57, 4.01, 5.72, 6.66, 8.06, 8.95, 9.8, 9.36, 7.64, 7.27, 6.73, 7.06, 8.06, 7.03, 4.47, 2.8, 2.21, 3.13, 4.19, 4.21, 5.72, 7.5, 8.97, 8.93, 6.79, 6.53, 5.95, 3.09, -0.88, -3.35, -2.76, -1.83, -0.0, 0.96, 1.96, 2.69, 2.7, 1.68, 1.68, 4.9, 4.55, 4.55, 4.93, 4.65, 5.08, 5.47, 5.47, 5.6, 5.6, 5.6, 5.47, 5.47, 5.31, 5.81, 5.6, 5.75, 5.75, 5.6, 4.9, 4.27, 4.0, 4.55, 7.6, 7.6, 7.44, 7.81, 5.29, 6.91, 8.4, 8.4, 6.91, 6.79, 7.2, 7.2, 7.44, 8.3, 8.42, 7.76, 8.03, 8.38, 8.79, 8.42, 8.37, 8.0, 6.64, 6.69, 5.98, 5.98, 5.92, 6.43, 7.45, 7.2, 6.64, 7.27, 8.16, 8.06, 4.34, -0.89, -0.79, 4.04, 6.64, 7.53, 7.36, 8.84, 9.66, 9.09, 6.47, 4.33, 3.51, 4.6, 6.01, 5.43, 3.58, 0.0, 3.13, 3.91, 5.2, 7.08, 8.19, 9.09, 9.8, 9.66, 7.93, 7.28, 6.79, 4.03, -0.0, -2.53, -3.48, -2.84, -1.13, -0.0, 2.12, 2.83, 2.57, 1.84, 1.76, 4.9, 4.8, 4.55, 4.55, 4.93, 5.08, 5.08, 5.47, 5.6, 5.6, 5.6, 5.6, 5.6, 5.6, 5.81, 5.81, 5.81, 5.81, 5.81, 4.9, 4.6, 4.11, 4.6, 5.09, 5.81, 6.3, 6.6, 7.01, 6.79, 6.79, 8.56, 8.17, 7.76, 7.76, 7.76, 8.17, 8.0, 7.81, 7.44, 7.41, 8.42, 8.42, 7.76, 7.15, 6.32, 6.01, 4.8, 4.54, 4.54, 4.54, 5.2, 5.29, 4.38, 3.69, 5.71, 7.6, 9.92, 6.9, -0.0, -2.39, 2.39, 7.4, 7.59, 6.56, 6.2, 7.08, 7.74, 6.64, 4.91, 4.81, 4.01, 3.6, 2.99, 2.2, 3.22, 5.46, 7.63, 9.12, 9.59, 9.68, 9.58, 10.34, 10.12, 10.22, 8.59, 7.78, 5.53, 2.47, 0.78, -0.0, -1.13, -0.0, 0.96, 2.82, 2.83, 2.83, 1.84, 1.76, 4.9, 4.8, 4.55, 4.55, 4.55, 5.08, 5.08, 5.47, 5.6, 5.6, 5.6, 5.6, 5.6, 5.6, 5.81, 5.81, 5.81, 5.81, 5.81, 5.31, 4.6, 4.6, 4.6, 5.09, 5.57, 6.04, 6.47, 6.94, 7.06, 7.06, 7.06, 8.33, 9.03, 7.63, 7.76, 8.17, 7.6, 7.07, 6.79, 7.44, 7.81, 7.44, 7.21, 6.32, 5.72, 4.66, 4.2, 4.8, 4.36, 4.36, 4.8, 3.39, 2.33, 2.33, 5.64, 7.36, 8.94, 9.92, 4.52, -0.8, 1.62, 6.6, 6.9, 4.65, 4.1, 3.83, 3.76, 4.55, 7.83, 7.91, 6.65, 3.45, 1.96, 3.65, 6.79, 9.66, 10.86, 11.37, 11.48, 11.38, 10.84, 10.63, 10.19, 9.56, 9.23, 9.0, 6.95, 5.36, 4.5, 4.6, 3.79, 3.33, 4.03, 4.5, 3.91, 2.57, 2.59, 2.49, 4.6, 4.4, 4.4, 4.8, 4.8, 5.31, 5.31, 5.47, 5.6, 5.6, 5.6, 5.6, 5.6, 5.6, 5.81, 5.81, 5.81, 5.81, 5.81, 5.57, 5.09, 4.6, 5.02, 5.09, 5.57, 6.14, 6.16, 6.23, 6.68, 6.71, 6.71, 6.71, 9.29, 8.6, 8.6, 8.4, 8.15, 6.79, 7.81, 6.82, 7.2, 7.44, 7.07, 6.32, 5.72, 5.21, 4.88, 4.4, 4.6, 4.6, 4.6, 3.45, 3.35, 3.91, 4.75, 5.72, 5.98, 7.25, 6.6, 3.25, 2.37, 5.4, 5.4, 4.65, 3.29, 2.2, 2.28, 4.42, 7.84, 11.04, 8.45, 5.29, 3.65, 4.06, 8.06, 11.08, 12.54, 13.04, 12.78, 12.57, 11.64, 10.66, 10.0, 9.34, 8.63, 9.4, 7.48, 6.57, 5.86, 6.84, 6.98, 5.78, 5.78, 5.38, 4.96, 2.49, 3.29, 3.29, 4.6, 4.6, 4.4, 4.4, 4.8, 5.31, 5.31, 5.47, 5.6, 5.6, 5.6, 5.6, 5.6, 5.6, 5.6, 5.81, 5.81, 5.88, 6.04, 5.57, 4.6, 4.6, 5.09, 5.67, 5.7, 6.23, 6.26, 6.26, 6.71, 6.71, 6.71, 6.71, 6.71, 8.85, 8.48, 7.03, 7.82, 7.2, 8.0, 7.6, 6.8, 6.82, 7.44, 6.64, 6.01, 5.21, 4.88, 4.88, 4.88, 4.66, 5.72, 5.72, 6.01, 6.01, 5.37, 4.75, 3.52, 4.54, 5.8, 5.6, 5.63, 6.44, 5.69, 4.6, 3.45, 1.09, 1.55, 4.74, 8.93, 12.03, 9.06, 5.63, 4.17, 5.67, 9.25, 12.33, 14.15, 14.2, 13.51, 12.89, 11.9, 10.66, 9.81, 8.82, 7.76, 6.83, 7.36, 6.7, 6.7, 6.84, 6.57, 6.14, 6.14, 5.28, 3.78, 2.95, 3.76, 3.76, 4.6, 4.6, 4.6, 4.6, 4.8, 4.9, 5.31, 5.08, 5.6, 5.6, 5.6, 6.0, 5.6, 5.6, 5.6, 5.81, 5.88, 6.04, 6.04, 5.57, 5.24, 4.8, 5.33, 5.78, 6.26, 6.26, 6.23, 6.6, 6.6, 6.16, 6.16, 6.23, 5.81, 8.49, 6.7, 7.35, 7.42, 8.0, 6.9, 6.9, 6.9, 5.77, 7.21, 6.01, 6.3, 5.1, 5.1, 5.98, 6.3, 6.01, 6.32, 6.87, 6.87, 6.87, 5.44, 4.71, 4.96, 5.72, 6.95, 7.9, 8.22, 6.95, 5.72, 4.46, 2.21, 0.78, 1.11, 4.72, 7.92, 11.45, 11.38, 5.41, 4.17, 7.49, 11.06, 13.18, 14.88, 14.51, 13.26, 12.26, 11.54, 10.92, 9.96, 8.27, 7.9, 7.13, 6.7, 6.98, 6.7, 6.7, 6.14, 6.24, 6.14, 5.09, 5.2, 4.4, 5.2, 5.2, 4.34, 4.19, 4.6, 4.6, 4.8, 4.9, 5.31, 5.08, 5.6, 5.6, 6.0, 6.0, 6.0, 5.6, 5.6, 5.81, 5.81, 5.81, 5.81, 5.57, 5.34, 5.36, 5.36, 5.81, 6.26, 6.16, 5.57, 5.57, 5.51, 5.24, 4.89, 4.92, 5.36, 5.34, 5.7, 7.12, 6.8, 7.6, 7.28, 6.9, 6.98, 6.64, 6.64, 6.3, 6.58, 6.58, 6.58, 6.3, 7.56, 7.56, 7.21, 7.44, 6.01, 6.01, 6.01, 4.71, 5.31, 6.64, 7.56, 8.15, 8.15, 7.27, 6.01, 5.44, 2.21, 0.81, 0.85, 2.39, 6.16, 10.43, 12.46, 7.51, 5.86, 8.85, 12.27, 13.83, 14.85, 14.85, 12.26, 10.84, 10.65, 11.7, 11.38, 8.85, 7.78, 6.31, 5.46, 6.04, 6.04, 6.31, 6.83, 6.04, 5.28, 5.2, 5.93, 5.72, 5.77, 5.77, 4.3, 4.34, 4.6, 4.6, 4.8, 4.9, 5.31, 5.47, 5.6, 5.6, 6.0, 6.0, 6.0, 5.6, 5.6, 7.2, 5.6, 5.6, 6.3, 6.47, 5.81, 4.92, 4.88, 7.1, 6.65, 7.15, 4.47, 5.81, 5.73, 4.44, 4.77, 5.24, 5.33, 5.78, 5.78, 5.7, 5.7, 5.99, 7.63, 8.4, 7.2, 7.51, 8.18, 7.56, 7.9, 7.9, 7.56, 7.56, 7.21, 7.21, 7.21, 6.87, 6.32, 6.32, 6.01, 6.01, 4.71, 6.3, 8.49, 8.82, 8.15, 6.69, 6.4, 4.83, 3.27, 1.68, 1.68, 3.27, 5.59, 8.94, 10.99, 9.48, 10.3, 11.6, 13.44, 14.09, 13.92, 13.11, 11.64, 10.51, 12.16, 12.5, 11.17, 8.79, 7.36, 5.9, 5.46, 5.86, 5.46, 6.14, 6.98, 6.57, 5.86, 5.99, 6.65, 6.79, 6.94, 6.94, 4.3, 4.34, 4.6, 4.6, 4.8, 5.31, 5.31, 5.47, 5.6, 5.6, 6.0, 6.0, 6.0, 5.6, 5.81, 5.81, 5.6, 5.81, 8.06, 8.06, 6.94, 4.6, 4.0, 6.18, 6.82, 6.82, 6.82, 5.75, 5.75, 6.1, 6.3, 6.3, 6.04, 6.16, 6.16, 6.16, 6.14, 6.23, 6.16, 6.47, 6.79, 7.01, 7.01, 7.2, 6.8, 8.54, 7.81, 7.81, 7.81, 7.81, 7.44, 6.87, 5.72, 6.3, 5.49, 5.49, 6.3, 6.32, 8.42, 8.49, 6.95, 6.01, 6.95, 6.01, 3.32, 1.6, 2.44, 4.83, 6.39, 8.05, 10.55, 12.15, 13.72, 13.83, 13.39, 12.94, 11.62, 10.6, 11.64, 12.27, 12.27, 11.9, 10.63, 8.12, 6.98, 6.05, 5.78, 6.51, 6.14, 6.05, 6.84, 6.94, 6.56, 6.79, 7.19, 8.18, 8.3, 8.3, 4.34, 4.77, 4.6, 5.02, 4.9, 5.31, 5.31, 5.6, 5.6, 5.6, 6.0, 6.0, 5.6, 5.81, 5.81, 5.81, 5.81, 5.99, 6.04, 8.06, 7.2, 4.65, 4.71, 5.29, 6.03, 6.8, 7.2, 7.31, 7.31, 7.01, 7.21, 6.79, 6.79, 6.51, 6.47, 6.47, 6.47, 6.6, 6.6, 6.47, 6.94, 6.79, 7.21, 7.21, 6.6, 8.63, 8.0, 8.0, 8.0, 7.6, 7.07, 6.01, 6.01, 6.3, 5.98, 5.49, 6.95, 7.02, 8.73, 7.21, 5.72, 6.32, 6.64, 5.72, 3.49, 3.32, 3.91, 5.89, 7.35, 9.05, 11.02, 12.72, 12.49, 11.05, 9.06, 8.0, 8.14, 10.4, 12.15, 13.52, 12.23, 10.66, 8.64, 6.05, 6.15, 6.0, 7.1, 7.36, 8.09, 6.79, 6.7, 7.63, 8.18, 7.28, 8.37, 8.79, 8.46, 8.46, 4.77, 4.77, 4.6, 4.9, 4.9, 5.31, 5.31, 5.6, 5.6, 6.0, 6.1, 6.1, 5.81, 5.81, 5.81, 5.81, 5.81, 6.04, 6.16, 5.99, 5.81, 5.47, 5.47, 5.6, 6.1, 6.79, 7.21, 7.26, 7.26, 7.21, 6.94, 6.94, 6.94, 6.94, 6.51, 6.51, 6.94, 6.51, 6.47, 6.47, 6.47, 6.79, 6.79, 6.79, 6.51, 6.1, 8.63, 8.0, 8.0, 7.6, 6.63, 6.64, 6.3, 6.3, 6.3, 5.72, 6.53, 7.68, 7.56, 6.28, 5.37, 6.32, 6.18, 5.06, 4.4, 4.34, 5.1, 5.89, 6.53, 7.95, 10.12, 13.15, 9.04, 4.47, 3.63, 6.7, 9.34, 11.23, 11.86, 11.71, 10.96, 7.97, 5.9, 5.14, 5.86, 6.79, 7.25, 8.31, 8.66, 7.36, 7.36, 8.01, 8.73, 8.79, 8.85, 8.85, 8.42, 8.42, 4.77, 4.77, 4.6, 4.9, 4.9, 5.31, 5.31, 5.08, 5.6, 6.0, 6.1, 6.1, 5.81, 5.81, 5.81, 5.81, 5.99, 6.04, 6.16, 5.7, 5.67, 5.51, 5.51, 5.57, 6.04, 6.47, 6.94, 6.94, 6.94, 6.94, 7.06, 6.61, 6.61, 6.61, 6.61, 6.61, 6.61, 6.47, 6.47, 6.47, 6.47, 6.94, 6.79, 6.79, 6.72, 6.1, 8.6, 8.06, 7.6, 6.98, 6.64, 6.3, 6.3, 6.3, 6.01, 6.01, 6.53, 7.59, 7.21, 4.89, 4.58, 5.36, 5.9, 5.29, 5.06, 5.76, 5.89, 5.1, 5.36, 5.76, 6.97, 10.47, 7.76, 4.0, 7.59, 8.93, 10.6, 11.08, 9.36, 6.94, 4.74, 4.5, 4.4, 5.2, 5.8, 7.36, 8.18, 8.99, 9.77, 9.89, 7.73, 8.79, 9.48, 9.53, 9.23, 8.9, 7.73, 7.73, 4.77, 4.77, 4.6, 4.8, 5.31, 5.31, 5.31, 5.08, 5.6, 5.6, 6.0, 6.1, 6.0, 5.81, 5.81, 5.57, 5.99, 6.04, 6.16, 5.7, 5.24, 5.67, 5.51, 5.57, 5.99, 6.04, 6.61, 6.61, 6.61, 6.61, 6.61, 6.61, 6.61, 6.61, 6.61, 6.61, 6.6, 6.6, 6.16, 6.16, 6.6, 6.47, 6.47, 6.47, 6.47, 6.47, 8.17, 7.6, 7.44, 7.21, 7.56, 7.56, 7.56, 6.32, 5.72, 5.72, 5.89, 7.18, 7.81, 5.06, 3.47, 4.5, 5.64, 6.31, 6.04, 6.53, 6.04, 6.3, 5.53, 5.69, 5.06, 15.02, 13.25, 8.31, 9.66, 11.12, 10.62, 8.38, 4.92, -0.0, 0.98, 2.47, 3.7, 4.58, 6.65, 7.36, 8.18, 8.99, 9.77, 10.54, 9.24, 9.85, 9.84, 9.21, 8.57, 8.22, 6.62, 6.62, 4.77, 4.77, 4.6, 4.6, 4.8, 5.31, 5.08, 5.47, 5.6, 5.6, 6.0, 6.1, 6.1, 6.23, 5.81, 5.57, 5.99, 6.04, 6.16, 5.7, 5.7, 5.7, 5.57, 5.57, 6.14, 6.16, 6.6, 6.61, 6.61, 6.61, 6.6, 6.6, 6.68, 6.68, 6.68, 6.68, 6.6, 6.16, 6.23, 6.23, 6.23, 6.16, 6.47, 6.47, 6.47, 6.47, 6.3, 6.1, 6.28, 6.8, 6.8, 8.93, 7.44, 6.01, 6.32, 6.32, 5.72, 5.59, 7.27, 6.01, 4.71, 4.68, 5.36, 6.83, 6.83, 6.83, 6.83, 6.95, 6.73, 6.57, 8.77, 12.3, 13.9, 8.64, 8.02, 10.04, 8.8, 4.4, -4.02, -2.68, -0.0, 2.29, 3.78, 5.89, 7.36, 8.05, 8.45, 8.95, 10.01, 10.37, 11.38, 10.15, 9.84, 9.26, 7.52, 7.08, 5.86, 5.86, 4.77, 4.77, 4.6, 4.6, 4.8, 4.9, 5.31, 5.47, 5.6, 5.6, 6.0, 6.1, 6.1, 6.1, 5.81, 5.99, 5.99, 6.16, 6.14, 5.7, 5.7, 5.57, 5.57, 5.99, 6.16, 6.16, 6.6, 6.68, 6.68, 6.68, 6.68, 6.68, 6.68, 6.68, 6.23, 6.23, 6.23, 6.23, 6.23, 6.23, 5.78, 5.7, 6.16, 6.47, 6.47, 6.3, 6.3, 6.23, 6.3, 6.79, 7.21, 6.51, 7.44, 6.32, 6.64, 6.01, 6.01, 5.03, 5.44, 6.69, 6.95, 6.95, 6.01, 6.64, 6.83, 6.83, 6.83, 6.53, 7.44, 7.35, 8.14, 11.45, 11.04, 9.17, 7.78, 8.93, 8.32, 4.15, 2.24, 2.24, 2.2, 4.12, 5.99, 7.34, 8.1, 9.24, 9.36, 9.06, 9.48, 9.48, 10.01, 10.78, 9.48, 8.16, 7.15, 6.57, 5.41, 5.41, 4.77, 4.77, 4.77, 5.09, 5.09, 5.09, 5.31, 5.31, 5.47, 5.6, 5.6, 6.0, 6.1, 6.1, 6.3, 5.88, 5.99, 6.14, 5.7, 5.57, 5.57, 5.57, 5.99, 6.16, 6.16, 6.16, 6.23, 6.23, 6.23, 6.23, 6.23, 6.26, 6.26, 6.23, 6.23, 6.23, 6.23, 6.23, 5.7, 5.57, 5.4, 5.31, 5.81, 5.81, 6.3, 6.3, 6.3, 5.81, 6.3, 6.3, 6.3, 6.0, 5.75, 5.59, 6.73, 6.32, 6.32, 5.03, 4.58, 6.01, 8.37, 7.41, 8.24, 6.64, 7.27, 6.53, 6.83, 7.41, 8.0, 8.3, 8.56, 9.06, 9.05, 8.42, 7.78, 8.42, 9.34, 7.67, 6.57, 5.95, 6.64, 6.97, 7.44, 7.93, 8.73, 9.8, 9.8, 9.89, 8.85, 8.42, 8.09, 9.02, 10.01, 8.59, 7.09, 5.95, 5.28, 5.28, 5.24, 5.24, 5.24, 5.51, 5.51, 5.31, 5.31, 5.08, 5.08, 5.6, 5.6, 5.81, 6.3, 6.3, 6.3, 5.88, 5.99, 5.99, 5.57, 5.57, 5.57, 5.99, 6.04, 6.16, 6.16, 6.16, 6.23, 6.23, 6.23, 6.23, 6.26, 6.26, 6.26, 5.78, 5.79, 6.23, 6.23, 5.7, 5.31, 5.08, 5.47, 5.47, 5.6, 5.6, 5.81, 5.6, 5.81, 5.81, 5.81, 5.81, 5.6, 5.75, 5.86, 5.59, 5.93, 6.73, 6.32, 5.03, 5.37, 6.11, 7.44, 8.06, 7.76, 7.68, 7.27, 7.27, 7.41, 7.82, 8.3, 9.06, 9.06, 7.63, 6.18, 5.76, 6.7, 9.17, 10.98, 11.28, 10.66, 10.04, 9.34, 8.22, 8.24, 9.2, 9.57, 9.57, 9.92, 9.62, 7.78, 6.57, 6.84, 8.42, 9.7, 8.73, 7.8, 6.79, 5.28, 5.28, 5.7, 5.7, 5.57, 5.81, 5.81, 5.6, 5.6, 5.47, 5.6, 5.81, 5.81, 5.81, 5.81, 5.88, 5.81, 5.81, 5.81, 5.81, 5.4, 5.57, 5.57, 5.99, 6.16, 6.16, 6.16, 6.23, 6.23, 6.23, 6.23, 6.68, 6.26, 6.26, 5.81, 5.81, 5.78, 5.78, 5.7, 5.02, 4.55, 5.08, 5.21, 5.37, 5.6, 6.18, 6.55, 5.21, 5.81, 5.31, 4.65, 5.08, 5.21, 5.86, 5.93, 5.93, 5.59, 5.65, 6.98, 6.63, 5.37, 6.55, 7.42, 8.4, 8.18, 8.47, 7.97, 7.27, 7.35, 7.35, 7.85, 8.9, 8.14, 6.44, 4.58, 3.55, 5.89, 9.04, 10.66, 11.64, 12.89, 11.64, 9.96, 8.78, 9.66, 9.76, 10.48, 9.84, 8.88, 7.68, 5.9, 5.9, 6.83, 8.02, 8.3, 8.85, 8.16, 7.08, 6.05, 6.05, 5.57, 5.57, 5.81, 6.0, 6.1, 6.51, 6.0, 5.6, 5.6, 5.6, 5.81, 5.81, 5.99, 5.99, 5.81, 5.81, 5.81, 5.81, 5.4, 5.57, 5.57, 6.16, 6.16, 6.16, 6.23, 6.23, 6.23, 6.23, 6.23, 6.71, 6.26, 6.26, 5.81, 5.81, 5.34, 5.33, 4.6, 4.27, 4.37, 5.08, 5.47, 5.6, 5.47, 4.71, 5.01, 6.79, 6.18, 4.37, 4.74, 5.35, 5.93, 6.41, 6.15, 6.41, 6.03, 5.86, 5.75, 5.21, 6.18, 6.6, 7.2, 7.82, 7.81, 8.42, 7.68, 6.53, 6.95, 7.21, 6.51, 5.75, 4.81, 5.1, 5.89, 5.37, 5.95, 7.82, 9.2, 10.04, 11.64, 12.26, 11.64, 9.86, 10.68, 10.91, 10.83, 9.6, 6.44, 3.79, 4.83, 6.01, 6.7, 7.81, 7.69, 8.97, 8.22, 7.15, 5.41, 5.41, 5.81, 5.81, 5.6, 6.1, 6.28, 6.8, 6.28, 6.1, 6.0, 6.0, 5.6, 5.81, 5.99, 5.57, 5.57, 5.31, 5.31, 5.4, 5.4, 5.57, 5.99, 6.16, 6.6, 6.6, 6.6, 6.23, 6.23, 6.23, 6.23, 6.71, 6.26, 5.81, 5.36, 5.36, 5.33, 4.77, 4.11, 3.88, 4.4, 5.09, 5.51, 5.31, 4.65, 4.11, 4.71, 6.55, 6.79, 5.35, 5.59, 5.86, 6.03, 6.67, 6.67, 6.67, 6.28, 6.13, 5.75, 5.21, 5.08, 6.8, 7.12, 7.76, 8.4, 8.06, 7.41, 5.59, 5.49, 7.27, 7.07, 4.65, 1.84, 3.27, 6.42, 6.64, 6.11, 7.2, 8.18, 9.05, 11.02, 12.27, 12.33, 12.25, 11.31, 11.39, 9.63, 5.21, 1.27, 2.4, 5.15, 6.4, 6.94, 6.94, 7.67, 7.35, 7.59, 5.95, 4.31, 4.31, 5.81, 5.81, 6.0, 6.51, 7.01, 6.8, 6.8, 6.28, 5.75, 6.0, 6.0, 5.6, 5.81, 5.57, 5.51, 5.31, 5.31, 5.4, 5.57, 5.57, 5.99, 6.04, 6.6, 6.6, 6.6, 6.16, 6.23, 6.23, 8.0, 6.23, 5.78, 5.78, 5.24, 5.24, 5.24, 4.77, 3.87, 3.7, 4.34, 4.89, 4.77, 4.0, 4.07, 3.79, 4.41, 5.21, 5.75, 6.03, 6.28, 6.28, 6.51, 6.51, 6.51, 6.51, 6.51, 5.75, 5.75, 5.47, 5.31, 5.31, 7.63, 7.76, 8.0, 7.67, 6.73, 4.95, 4.16, 6.87, 8.0, 6.87, 4.03, 3.4, 5.98, 8.53, 8.53, 8.31, 8.38, 9.43, 10.85, 11.72, 12.65, 12.44, 11.95, 9.86, 6.0, -0.0, -0.76, 1.4, 6.0, 6.7, 6.7, 6.8, 6.39, 5.38, 6.05, 4.6, 3.02, 3.02, 5.81, 5.81, 6.1, 6.51, 6.8, 6.8, 6.8, 6.28, 6.28, 6.1, 5.6, 5.81, 5.81, 5.81, 5.09, 5.51, 5.51, 5.4, 5.81, 5.81, 5.99, 6.04, 6.47, 6.61, 6.61, 6.6, 6.16, 6.23, 6.16, 7.85, 5.7, 5.57, 5.57, 5.57, 5.7, 4.77, 3.87, 3.98, 4.47, 4.44, 3.72, 2.86, 3.49, 3.49, 4.65, 5.08, 5.6, 6.0, 6.1, 6.0, 6.0, 6.1, 6.51, 6.28, 6.28, 5.75, 5.75, 5.47, 5.31, 5.4, 6.04, 8.06, 8.0, 6.11, 6.01, 4.83, 4.42, 5.37, 6.87, 7.81, 6.53, 5.69, 5.69, 8.22, 10.75, 10.84, 10.66, 10.63, 11.03, 11.28, 11.28, 10.8, 10.1, 7.67, 1.8, -1.4, -0.8, 2.54, 5.94, 6.99, 6.55, 6.08, 4.83, 2.35, 1.54, 2.49, 2.21, 2.21, 6.1, 6.1, 6.51, 7.01, 6.8, 7.2, 6.56, 6.67, 6.28, 6.1, 5.81, 5.81, 5.81, 5.81, 5.51, 5.51, 5.4, 5.81, 5.81, 5.81, 5.99, 6.04, 6.47, 6.61, 6.61, 6.6, 6.16, 6.23, 6.23, 6.16, 6.04, 6.04, 6.04, 6.04, 5.7, 5.24, 3.98, 4.47, 4.92, 4.4, 2.82, 2.32, 3.22, 4.11, 4.65, 5.08, 5.47, 5.6, 5.6, 6.0, 6.0, 6.0, 5.75, 6.28, 6.28, 6.28, 6.13, 5.75, 5.6, 5.81, 8.17, 7.63, 6.52, 5.69, 4.42, 4.03, 4.83, 5.24, 6.32, 7.81, 7.9, 7.27, 7.21, 7.59, 10.51, 11.54, 11.25, 11.26, 10.68, 10.32, 9.18, 8.63, 8.32, 7.02, 3.9, 0.7, 1.49, 3.32, 5.82, 6.11, 6.73, 5.24, 1.55, -0.0, -0.0, 1.54, 1.54, 1.54, 6.1, 6.1, 6.6, 6.8, 7.2, 6.95, 6.95, 6.8, 6.8, 6.51, 5.6, 5.81, 5.81, 5.99, 5.57, 5.31, 5.81, 5.81, 5.81, 5.81, 5.99, 6.04, 6.6, 6.61, 6.61, 6.61, 6.16, 6.23, 6.23, 6.23, 6.16, 6.16, 6.16, 6.16, 5.7, 5.33, 4.92, 4.89, 5.81, 5.29, 4.05, 3.64, 3.85, 4.71, 5.21, 5.08, 5.08, 5.47, 5.6, 5.6, 5.37, 5.75, 6.13, 6.03, 6.03, 6.41, 6.03, 6.28, 6.28, 6.79, 6.94, 7.63, 5.06, 5.03, 4.71, 5.03, 4.95, 5.69, 6.39, 8.03, 8.3, 8.22, 8.49, 8.64, 10.01, 10.58, 11.6, 11.25, 10.66, 9.43, 7.68, 7.27, 7.59, 7.59, 7.02, 4.43, 4.41, 5.37, 6.01, 6.73, 6.32, 3.77, -0.0, -0.76, -0.76, -0.0, 1.52, 1.52, 6.51, 6.51, 6.8, 7.2, 6.95, 6.95, 6.95, 7.2, 6.8, 6.51, 6.1, 5.81, 5.81, 5.4, 5.31, 5.31, 5.81, 5.81, 5.81, 5.81, 6.04, 6.47, 6.6, 6.6, 6.61, 6.61, 6.6, 6.23, 6.23, 6.23, 6.16, 6.14, 6.16, 6.16, 6.16, 5.81, 5.33, 5.7, 6.26, 6.41, 5.1, 4.46, 4.47, 5.29, 5.21, 5.21, 5.21, 5.21, 5.21, 5.21, 5.58, 5.49, 5.86, 6.41, 6.41, 6.41, 6.41, 6.41, 6.67, 7.01, 7.31, 6.8, 6.32, 5.1, 5.1, 6.01, 5.37, 6.55, 7.2, 7.06, 8.15, 7.9, 10.23, 10.04, 9.4, 8.53, 9.8, 10.84, 10.84, 9.53, 8.53, 8.53, 8.93, 8.3, 7.68, 7.06, 6.73, 7.06, 7.06, 6.73, 5.24, 1.84, -0.89, -1.73, -0.78, -0.0, 0.76, 0.76, 6.4, 6.4, 6.8, 6.95, 6.95, 6.95, 6.95, 6.95, 6.8, 6.28, 6.1, 6.1, 5.81, 5.81, 5.31, 5.31, 5.81, 5.4, 5.81, 5.81, 5.88, 6.47, 6.47, 6.6, 6.6, 6.6, 6.6, 6.16, 6.23, 6.23, 5.7, 5.7, 5.7, 6.16, 6.16, 6.26, 5.78, 6.16, 6.71, 6.8, 5.71, 5.1, 5.08, 6.45, 4.94, 4.94, 5.21, 5.21, 5.21, 4.94, 5.29, 5.86, 5.86, 6.41, 6.41, 6.41, 6.41, 6.95, 6.41, 6.28, 6.95, 7.15, 7.27, 6.04, 5.76, 6.32, 5.37, 6.11, 6.39, 6.32, 6.53, 7.9, 10.23, 10.79, 8.38, 6.83, 8.53, 10.24, 11.25, 10.81, 10.15, 9.84, 9.57, 8.93, 8.3, 7.69, 7.32, 7.44, 7.44, 6.18, 3.72, -0.0, -1.84, -1.84, -1.03, -0.88, -0.0, -0.0, 6.8, 6.8, 6.95, 6.95, 6.7, 6.7, 6.95, 6.95, 6.8, 6.51, 6.1, 6.3, 5.81, 5.81, 5.08, 5.31, 5.81, 5.31, 5.31, 5.81, 5.88, 6.47, 6.47, 6.47, 6.6, 6.6, 6.6, 6.6, 6.23, 6.23, 5.7, 5.24, 5.7, 6.14, 6.23, 6.26, 6.23, 6.68, 7.13, 6.8, 6.57, 5.69, 5.37, 6.73, 5.86, 5.49, 5.21, 4.94, 5.01, 5.01, 5.35, 5.86, 5.86, 6.41, 6.41, 6.41, 6.41, 6.79, 6.15, 5.86, 6.41, 6.51, 8.49, 6.95, 5.89, 6.01, 5.72, 5.59, 5.76, 6.04, 5.64, 8.22, 10.04, 10.01, 8.93, 7.68, 8.12, 10.04, 10.55, 10.18, 10.82, 11.18, 10.73, 9.84, 8.8, 8.55, 8.0, 7.35, 6.21, 3.91, 0.96, -0.0, -1.98, -2.16, -1.05, -0.79, -0.0, -0.0, 6.8, 6.8, 6.95, 6.7, 6.7, 6.7, 6.95, 6.95, 7.2, 6.4, 6.51, 6.3, 5.81, 5.81, 5.4, 5.81, 5.81, 5.31, 5.31, 5.81, 5.81, 6.47, 6.47, 6.47, 6.47, 6.6, 6.6, 6.6, 6.6, 6.16, 5.7, 5.33, 5.33, 5.78, 6.23, 6.26, 6.68, 7.15, 7.51, 7.31, 7.07, 6.51, 5.59, 5.86, 7.44, 5.49, 4.94, 4.74, 5.35, 5.35, 5.86, 5.86, 5.86, 6.03, 6.41, 6.41, 6.41, 6.51, 6.15, 5.59, 5.86, 6.51, 6.51, 7.56, 6.01, 5.72, 4.83, 5.1, 5.76, 6.04, 6.53, 7.35, 8.49, 9.17, 10.43, 8.97, 7.68, 9.0, 10.3, 10.55, 11.18, 11.37, 11.04, 10.0, 9.6, 8.82, 6.94, 5.58, 4.11, 1.99, -0.0, -0.0, -1.99, -2.2, -1.08, -1.27, -0.0, -0.0, 6.95, 6.95, 6.95, 6.95, 6.7, 6.95, 6.95, 6.95, 7.2, 6.8, 6.6, 6.1, 5.81, 5.81, 5.81, 5.81, 5.81, 5.08, 5.31, 5.81, 5.81, 6.04, 6.47, 6.47, 6.47, 6.6, 6.6, 6.6, 6.6, 6.16, 6.14, 5.34, 5.33, 5.36, 5.81, 6.26, 6.71, 7.15, 7.4, 7.71, 6.95, 6.41, 5.86, 5.75, 5.75, 7.2, 5.29, 5.01, 5.65, 5.86, 5.49, 5.75, 5.86, 5.86, 6.03, 6.41, 6.41, 6.15, 5.93, 5.59, 5.86, 5.59, 7.56, 6.64, 6.32, 5.21, 4.83, 4.96, 5.1, 6.24, 6.95, 6.64, 6.95, 8.22, 9.8, 10.43, 8.59, 8.95, 10.34, 11.14, 11.44, 11.69, 10.65, 10.0, 8.55, 6.4, 4.54, 3.22, 2.2, -0.0, -0.0, -0.0, -1.08, -2.23, -1.13, -0.0, -0.0, -0.0, 6.95, 6.95, 6.95, 6.95, 6.95, 6.56, 6.56, 6.8, 7.01, 7.01, 6.6, 6.1, 5.6, 5.81, 5.81, 5.6, 5.47, 5.08, 5.31, 5.81, 5.81, 6.04, 6.47, 6.47, 6.47, 6.6, 6.6, 6.6, 6.6, 6.6, 6.16, 5.7, 5.78, 5.78, 5.81, 6.26, 6.71, 7.13, 7.84, 7.51, 7.2, 6.67, 5.89, 5.6, 5.6, 5.75, 5.86, 5.49, 5.75, 5.75, 5.75, 5.75, 5.75, 5.49, 5.86, 6.03, 6.41, 6.15, 5.93, 5.35, 5.65, 5.86, 5.86, 7.21, 5.59, 4.96, 4.96, 5.31, 5.1, 6.64, 6.64, 5.89, 7.27, 7.27, 8.24, 9.21, 8.72, 9.66, 10.71, 12.33, 12.08, 11.18, 10.53, 8.88, 5.46, 2.2, 1.19, 2.2, 1.08, -0.0, -0.0, -0.0, -0.0, -1.27, -0.0, -0.0, -0.0, -0.0, 6.95, 6.95, 6.95, 6.95, 6.56, 6.41, 6.8, 6.6, 6.6, 6.6, 6.51, 6.1, 6.0, 5.6, 5.6, 5.6, 5.47, 5.31, 5.31, 5.4, 5.81, 5.99, 6.04, 6.47, 6.47, 6.6, 6.6, 6.6, 6.6, 6.16, 6.04, 6.04, 6.16, 5.7, 6.23, 6.23, 6.68, 7.07, 7.4, 7.26, 7.01, 6.51, 6.1, 6.0, 5.6, 6.0, 5.75, 5.75, 5.75, 5.75, 5.21, 5.58, 5.75, 5.75, 5.75, 5.86, 5.86, 5.93, 5.59, 5.65, 5.29, 5.86, 5.86, 7.21, 5.31, 4.96, 6.64, 6.32, 6.01, 6.73, 6.01, 5.59, 6.24, 7.59, 7.59, 7.82, 8.95, 9.89, 10.54, 11.92, 13.04, 12.14, 9.84, 6.39, -0.0, -2.0, -0.0, 1.08, -0.0, -0.0, -0.0, -0.0, -0.0, -0.0, -0.0, -0.0, -0.0, -0.0, 7.2, 7.2, 6.95, 6.56, 6.41, 6.67, 6.51, 6.51, 6.51, 6.51, 6.1, 6.1, 6.0, 5.6, 5.81, 5.81, 5.31, 5.31, 5.31, 5.4, 5.81, 5.99, 6.04, 6.47, 6.47, 6.6, 6.6, 6.6, 6.6, 6.16, 6.04, 6.04, 6.04, 6.04, 6.16, 6.6, 6.61, 6.94, 6.94, 6.79, 6.79, 6.51, 6.1, 6.0, 5.6, 5.6, 5.75, 5.75, 5.75, 5.21, 5.21, 5.21, 5.21, 5.75, 5.75, 5.86, 5.86, 5.86, 5.86, 5.29, 5.29, 5.75, 6.13, 5.29, 6.32, 6.32, 7.21, 6.73, 6.39, 6.01, 6.01, 5.89, 6.64, 6.95, 7.27, 7.59, 8.93, 9.48, 9.7, 10.65, 13.04, 13.05, 9.2, 3.33, -3.16, -3.16, -0.99, -0.0, -0.0, -0.0, -0.0, -0.0, -0.0, -0.0, 1.08, -0.0, -0.0, -0.0, 7.2, 7.2, 6.8, 6.8, 6.67, 6.28, 6.51, 6.51, 6.1, 6.1, 6.1, 6.0, 5.6, 5.81, 5.81, 5.81, 5.31, 5.31, 5.31, 5.31, 5.4, 5.99, 5.99, 6.04, 6.47, 6.47, 6.6, 6.6, 6.6, 6.04, 6.04, 6.04, 6.04, 6.04, 6.04, 6.47, 6.47, 6.51, 6.51, 6.72, 6.3, 6.1, 6.0, 5.6, 5.6, 5.6, 5.6, 5.37, 5.21, 5.21, 5.21, 5.21, 5.21, 5.21, 5.58, 5.75, 5.49, 5.86, 5.49, 5.29, 5.58, 5.75, 5.58, 5.01, 5.06, 7.56, 6.87, 6.01, 5.89, 5.59, 5.59, 6.18, 6.64, 6.64, 6.53, 7.27, 8.31, 9.26, 9.17, 9.06, 11.82, 13.18, 9.17, 2.47, -3.6, -3.6, -2.21, -2.21, -1.6, -0.0, -0.0, -0.0, -0.0, 1.27, 1.3, 0.95, 0.95, 0.95, 7.2, 7.2, 6.8, 6.8, 6.28, 6.51, 6.1, 6.3, 6.3, 6.23, 5.81, 5.6, 5.81, 5.81, 5.6, 5.6, 5.08, 5.08, 5.31, 5.31, 5.4, 5.81, 5.99, 6.04, 6.04, 6.47, 6.47, 6.47, 6.47, 6.04, 6.04, 6.04, 6.04, 6.04, 6.04, 6.04, 6.47, 6.47, 6.47, 6.3, 6.3, 6.3, 5.81, 5.81, 5.6, 5.6, 5.47, 5.47, 5.47, 5.47, 5.47, 5.47, 5.08, 5.47, 5.21, 5.21, 5.75, 5.75, 5.29, 5.29, 5.21, 5.58, 5.21, 4.74, 4.75, 6.95, 6.32, 4.96, 5.21, 5.89, 5.89, 6.18, 6.64, 6.64, 6.53, 7.27, 8.31, 8.53, 8.85, 9.26, 10.24, 11.54, 9.17, 2.47, -3.9, -4.38, -3.39, -3.39, -3.6, -0.0, -0.0, -0.0, -0.0, 1.27, 0.96, -0.0, -0.0, -0.0, 7.2, 7.2, 6.8, 6.8, 6.28, 6.51, 6.1, 6.1, 6.23, 5.81, 5.81, 5.81, 5.6, 5.6, 5.6, 5.47, 5.08, 5.08, 5.08, 5.31, 5.31, 5.4, 5.99, 5.99, 6.04, 6.47, 6.47, 6.47, 6.47, 6.04, 6.04, 6.04, 6.04, 6.04, 6.04, 6.04, 6.47, 6.47, 6.47, 6.3, 6.3, 5.81, 5.81, 5.81, 5.6, 5.6, 5.47, 5.08, 5.08, 5.08, 5.08, 5.08, 5.08, 5.08, 5.21, 5.21, 5.21, 5.58, 5.58, 5.21, 5.21, 5.21, 4.65, 4.12, 4.12, 6.3, 6.01, 5.21, 6.01, 5.89, 5.89, 5.89, 5.89, 5.76, 6.53, 6.83, 7.18, 8.53, 8.85, 9.26, 9.26, 10.58, 9.17, 3.11, -3.9, -4.85, -3.9, -3.39, -3.13, -2.24, -0.0, -0.0, -0.0, 1.19, 0.95, -0.0, -0.0, -0.0, 7.2, 7.2, 6.8, 6.28, 6.28, 6.51, 6.1, 6.1, 5.6, 5.81, 5.81, 5.6, 5.6, 5.6, 5.6, 5.47, 5.47, 5.08, 5.08, 5.31, 5.31, 5.4, 5.57, 5.99, 6.04, 6.04, 6.47, 6.47, 6.04, 6.04, 6.04, 6.04, 6.04, 6.04, 6.04, 6.04, 6.47, 6.04, 6.04, 6.04, 5.81, 5.81, 5.81, 5.6, 5.6, 5.47, 5.08, 5.08, 5.08, 5.08, 5.08, 5.08, 4.93, 4.93, 5.08, 5.21, 5.21, 5.21, 5.21, 5.21, 5.21, 4.65, 4.65, 4.11, 4.12, 5.1, 5.36, 5.36, 5.36, 5.89, 5.36, 5.1, 4.96, 5.76, 6.04, 6.7, 7.48, 7.78, 8.12, 8.85, 8.53, 8.93, 9.17, 5.1, -2.98, -5.29, -2.8, -3.13, -3.13, -3.13, -2.4, -0.0, 1.41, 2.16, -0.0, -0.0, -0.0, -0.0, 6.8, 6.8, 6.8, 6.28, 6.28, 6.28, 6.1, 6.1, 6.0, 5.6, 5.6, 5.6, 5.6, 5.6, 5.6, 5.47, 5.47, 5.08, 5.08, 5.31, 5.31, 5.31, 5.57, 5.99, 5.99, 6.04, 6.04, 6.04, 6.04, 6.04, 6.04, 6.04, 5.99, 5.99, 6.04, 6.04, 6.04, 6.04, 5.99, 5.99, 5.99, 5.81, 5.81, 5.47, 5.47, 5.08, 5.08, 5.08, 5.08, 5.08, 5.08, 5.08, 4.93, 4.93, 4.93, 5.08, 5.21, 5.21, 5.21, 4.65, 4.65, 4.65, 4.07, 3.79, 3.76, 5.53, 5.36, 4.96, 5.21, 5.21, 5.21, 5.36, 5.1, 5.76, 6.04, 6.42, 6.7, 7.78, 8.22, 8.53, 8.64, 7.9, 8.64, 7.68, -0.0, -4.0, -2.8, -2.4, -2.8, -2.21, -2.21, -0.0, 2.0, 1.84, -0.0, -0.85, -0.85, -0.85, 6.8, 6.8, 6.8, 6.28, 6.28, 6.28, 5.89, 6.0, 6.0, 5.6, 5.6, 5.6, 5.6, 5.6, 5.6, 5.47, 5.47, 5.08, 5.08, 5.31, 5.31, 5.31, 5.57, 5.57, 5.99, 6.04, 6.04, 6.04, 6.04, 6.04, 6.04, 6.04, 5.99, 5.99, 5.99, 6.16, 6.16, 6.04, 5.99, 5.99, 5.99, 5.4, 5.31, 5.31, 5.31, 5.08, 5.08, 5.31, 5.31, 5.31, 5.08, 4.93, 4.93, 4.55, 4.93, 4.93, 5.08, 5.21, 4.84, 4.65, 4.65, 4.55, 4.07, 3.49, 3.83, 4.12, 4.68, 4.12, 5.21, 5.06, 6.04, 5.21, 5.21, 4.96, 5.76, 6.31, 6.7, 7.48, 7.9, 7.9, 7.9, 7.59, 8.02, 8.38, -4.22, -4.38, -2.4, -1.9, -1.4, -0.0, -0.0, 0.88, 2.16, 0.94, -0.0, -0.85, -0.85, -0.85, 6.8, 6.8, 6.8, 6.28, 6.28, 6.28, 5.89, 5.75, 6.0, 5.6, 5.6, 5.6, 5.6, 5.6, 5.6, 5.47, 5.47, 5.08, 5.08, 5.31, 5.31, 5.31, 5.57, 5.57, 5.99, 5.99, 6.04, 6.16, 6.16, 6.16, 6.04, 5.99, 5.99, 5.99, 6.14, 6.14, 6.14, 6.14, 5.7, 5.57, 5.57, 5.31, 5.31, 5.31, 4.9, 4.9, 5.31, 5.31, 4.9, 4.8, 4.55, 4.55, 4.55, 4.55, 4.55, 4.93, 5.08, 5.08, 4.65, 4.65, 4.55, 4.37, 4.0, 3.79, 3.78, 3.76, 3.77, 3.6, 4.34, 5.21, 5.76, 5.06, 5.06, 5.06, 5.21, 6.04, 6.7, 7.59, 7.13, 6.83, 6.83, 7.27, 8.38, 4.19, -3.6, -4.47, -3.13, -2.68, -1.2, -0.0, 0.96, 1.7, 1.84, 0.85, -0.0, -0.89, -0.89, -0.89, 6.8, 6.8, 6.67, 6.28, 6.28, 6.28, 6.28, 5.75, 5.75, 5.75, 5.6, 5.6, 5.6, 5.6, 5.6, 5.6, 5.47, 5.08, 5.08, 5.31, 5.31, 5.31, 5.57, 5.57, 5.57, 6.14, 6.14, 6.16, 6.16, 6.14, 6.14, 6.14, 6.14, 6.14, 6.14, 6.14, 5.7, 5.7, 5.7, 5.57, 5.51, 5.31, 5.31, 4.9, 4.8, 4.8, 4.9, 4.8, 4.8, 4.55, 4.55, 4.55, 4.55, 4.55, 4.55, 4.55, 4.93, 4.93, 4.93, 4.55, 4.37, 4.0, 4.0, 3.48, 3.49, 3.49, 2.82, 3.04, 4.5, 5.36, 4.96, 5.21, 5.06, 5.29, 5.06, 5.06, 5.9, 6.15, 5.9, 6.31, 6.83, 7.59, 9.43, 5.49, -3.13, -4.47, -3.13, -2.68, -1.2, 1.13, 2.0, 2.76, 1.96, -0.0, -0.89, -1.63, -1.63, -1.63, 6.8, 6.8, 6.28, 6.28, 6.28, 6.28, 6.13, 5.75, 5.75, 5.75, 5.75, 6.0, 5.6, 5.6, 5.6, 5.6, 5.47, 5.08, 5.08, 5.31, 5.31, 5.31, 5.51, 5.57, 5.57, 5.7, 6.14, 6.14, 6.14, 6.14, 5.7, 5.7, 5.7, 5.7, 5.7, 5.7, 5.7, 5.7, 5.57, 5.51, 5.09, 5.09, 4.9, 4.9, 4.8, 4.8, 4.8, 4.8, 4.8, 4.8, 4.8, 4.8, 4.55, 4.55, 4.55, 4.55, 4.55, 4.93, 4.93, 4.55, 4.0, 4.0, 4.0, 3.78, 3.48, 3.49, 2.84, 2.82, 4.68, 5.1, 5.36, 4.96, 5.21, 5.46, 5.21, 4.34, 5.06, 5.29, 5.9, 5.9, 6.31, 6.83, 9.4, 7.81, 2.24, -4.98, -4.02, -2.68, -0.0, 1.2, 2.84, 2.76, 1.75, -0.0, -1.76, -1.63, -1.63, -1.63, 6.67, 6.67, 6.28, 6.28, 6.28, 6.28, 6.13, 5.75, 5.75, 5.75, 5.75, 6.0, 6.0, 5.6, 5.6, 5.6, 5.47, 5.47, 5.31, 5.31, 5.31, 5.31, 5.51, 5.57, 5.7, 5.7, 5.7, 5.7, 5.7, 5.7, 5.7, 5.7, 5.7, 5.78, 5.78, 5.78, 5.78, 5.7, 5.57, 5.09, 5.09, 5.02, 5.02, 5.02, 5.02, 4.4, 4.4, 4.4, 4.8, 4.8, 4.8, 4.8, 4.55, 4.55, 4.55, 4.55, 4.55, 4.55, 4.55, 4.37, 4.0, 4.27, 3.72, 3.43, 3.48, 2.86, 3.12, 2.84, 3.47, 5.53, 5.1, 4.34, 4.96, 5.21, 5.21, 4.5, 4.26, 5.21, 5.76, 6.04, 6.04, 8.02, 9.04, 10.04, 5.94, -2.84, -3.6, -2.24, 1.79, 2.68, 2.84, 2.47, 1.52, -0.0, -1.76, -1.63, -1.63, -1.63, 6.28, 6.28, 6.28, 6.28, 6.28, 6.13, 5.75, 5.75, 5.75, 5.75, 6.0, 6.0, 5.6, 5.6, 5.6, 5.6, 5.6, 5.72, 5.31, 5.31, 5.31, 5.51, 5.51, 5.7, 5.7, 5.7, 5.7, 5.78, 5.78, 5.78, 5.78, 5.78, 5.78, 5.78, 5.78, 5.78, 5.78, 5.26, 5.24, 5.24, 4.6, 4.6, 4.6, 4.6, 4.6, 4.4, 4.4, 4.4, 4.4, 4.4, 4.4, 4.37, 4.55, 4.55, 4.55, 4.55, 4.0, 4.55, 4.55, 4.55, 4.0, 3.88, 3.72, 3.72, 3.43, 2.86, 3.15, 3.12, 3.49, 4.68, 4.5, 4.5, 5.36, 5.21, 5.36, 4.5, 4.42, 4.26, 5.1, 5.89, 6.95, 8.12, 9.05, 11.36, 10.18, 4.02, -1.98, -1.4, 0.0, 2.4, 2.53, 3.15, 1.5, -0.82, -2.49, -2.41, -2.41, -2.41, 6.28, 6.28, 6.28, 6.13, 5.75, 5.75, 5.75, 5.75, 5.75, 6.0, 5.6, 5.6, 5.6, 5.6, 5.6, 5.6, 5.81, 5.31, 5.31, 5.31, 5.51, 5.51, 5.51, 5.7, 5.7, 5.78, 5.78, 5.78, 5.78, 5.78, 5.78, 5.78, 5.78, 5.78, 5.81, 5.78, 5.34, 5.33, 5.24, 4.77, 4.77, 4.77, 4.11, 4.11, 4.11, 4.27, 4.27, 4.27, 4.27, 4.27, 4.0, 4.37, 4.55, 4.55, 4.8, 4.8, 4.27, 4.0, 4.55, 4.55, 4.0, 3.88, 3.72, 3.72, 3.72, 3.16, 2.86, 2.86, 2.84, 3.77, 4.26, 4.26, 5.1, 5.36, 5.36, 4.83, 4.95, 5.06, 5.24, 6.73, 7.81, 8.43, 9.77, 11.37, 12.3, 9.24, 4.92, 1.9, 2.68, 2.68, 3.09, 3.78, 2.39, -0.85, -3.25, -3.53, -3.53, -3.53, 6.28, 6.28, 5.75, 5.75, 5.75, 5.75, 5.75, 6.0, 5.6, 5.6, 5.6, 5.6, 5.6, 5.81, 5.81, 5.81, 5.4, 5.31, 5.31, 5.51, 5.51, 5.09, 5.24, 5.26, 5.78, 5.78, 5.78, 5.78, 5.78, 5.34, 5.34, 5.36, 5.36, 5.81, 5.81, 5.36, 5.36, 4.89, 4.88, 4.77, 4.77, 4.34, 4.11, 4.11, 4.11, 3.88, 4.27, 4.27, 4.27, 4.0, 4.0, 4.0, 4.8, 4.4, 4.4, 4.4, 4.27, 4.27, 4.27, 4.55, 4.0, 4.27, 3.88, 3.72, 3.72, 3.72, 3.43, 3.48, 2.86, 3.12, 3.49, 5.37, 5.24, 5.53, 5.53, 5.69, 5.77, 6.18, 6.82, 7.58, 8.21, 8.8, 9.9, 11.37, 12.3, 11.11, 8.56, 6.51, 5.21, 4.56, 4.5, 4.4, 2.35, -0.89, -3.51, -4.3, -4.3, -4.3, 5.75, 5.75, 5.75, 5.75, 5.75, 6.0, 5.6, 5.6, 5.6, 5.6, 5.6, 5.81, 5.81, 5.4, 5.4, 5.4, 5.31, 5.31, 5.51, 5.51, 5.51, 5.24, 5.24, 5.26, 5.78, 5.78, 5.78, 5.34, 5.34, 5.34, 5.36, 5.36, 5.36, 5.36, 5.36, 5.36, 5.36, 4.92, 4.88, 4.44, 4.34, 4.3, 4.11, 4.11, 4.11, 3.88, 3.88, 4.27, 4.27, 4.0, 4.37, 4.4, 4.4, 4.4, 4.4, 4.4, 4.27, 4.27, 4.27, 4.27, 4.27, 4.27, 4.27, 4.27, 4.27, 3.88, 3.43, 3.78, 3.48, 3.79, 3.79, 5.37, 5.37, 6.98, 6.55, 6.18, 6.18, 7.2, 7.35, 7.76, 8.4, 8.95, 9.9, 11.27, 12.45, 11.92, 9.77, 8.21, 7.06, 5.38, 5.28, 5.38, 3.27, -0.8, -3.78, -4.5, -4.5, -4.5, 6.0, 6.0, 6.0, 5.6, 5.6, 5.6, 5.6, 5.6, 5.81, 5.81, 5.81, 5.4, 5.4, 5.4, 5.31, 5.31, 5.31, 5.51, 5.51, 5.51, 5.67, 5.67, 5.26, 5.34, 5.34, 5.34, 5.34, 5.33, 5.36, 5.36, 5.36, 5.36, 5.36, 5.36, 5.36, 5.36, 4.92, 4.92, 4.47, 4.44, 4.44, 4.3, 4.3, 4.11, 4.11, 4.11, 3.88, 4.27, 4.27, 4.55, 4.55, 4.8, 4.8, 4.4, 4.6, 4.6, 4.6, 4.52, 4.52, 4.4, 4.4, 4.4, 4.27, 4.27, 4.27, 4.27, 4.27, 4.0, 4.0, 4.07, 4.07, 4.41, 4.65, 8.0, 6.82, 6.44, 6.44, 7.2, 7.76, 8.17, 8.72, 8.95, 9.9, 10.85, 11.6, 12.15, 10.63, 8.79, 7.27, 6.83, 6.04, 5.89, 3.2, -0.84, -3.88, -5.14, -5.14, -5.14, 6.0, 6.0, 6.0, 5.6, 5.6, 5.6, 5.6, 5.6, 5.81, 5.81, 5.81, 5.4, 5.4, 5.4, 5.31, 5.31, 5.31, 5.51, 5.51, 5.51, 5.67, 5.67, 5.26, 5.34, 5.34, 5.34, 5.34, 5.33, 5.36, 5.36, 5.36, 5.36, 5.36, 5.36, 5.36, 5.36, 4.92, 4.92, 4.47, 4.44, 4.44, 4.3, 4.3, 4.11, 4.11, 4.11, 3.88, 4.27, 4.27, 4.55, 4.55, 4.8, 4.8, 4.4, 4.6, 4.6, 4.6, 4.52, 4.52, 4.4, 4.4, 4.4, 4.27, 4.27, 4.27, 4.27, 4.27, 4.0, 4.0, 4.07, 4.07, 4.41, 4.65, 8.0, 6.82, 6.44, 6.8, 7.2, 7.76, 8.17, 8.72, 8.8, 9.77, 10.0, 11.02, 11.64, 11.03, 9.34, 8.31, 7.59, 6.95, 6.01, 2.82, -0.94, -4.2, -5.14, -5.14, -5.14]}, {"header": {"dx": 0.06612293990616946, "dy": 0.0552356325346848, "nx": 98, "ny": 59, "la1": 35.046912555036876, "la2": 31.78801023549047, "lo1": -121.43107172385933, "lo2": -114.95102361305473, "refTime": "2026041220", "parameterCategory": 1, "parameterNumber": 3}, "data": [1.84, 2.23, 2.22, 2.44, 2.2, 2.2, 2.2, 2.84, 2.82, 3.47, 4.12, 3.45, 4.34, 5.21, 5.21, 5.21, 5.46, 5.53, 5.69, 5.93, 5.93, 6.28, 6.11, 6.01, 5.89, 6.48, 6.83, 5.9, 5.9, 5.21, 4.68, 5.69, 5.06, 0.0, -4.92, -4.92, -4.82, -4.6, -4.11, -3.63, -2.53, -2.0, 0.0, 2.4, 5.31, 7.97, 10.01, 10.66, 10.66, 10.66, 11.03, 10.63, 10.22, 9.7, 8.84, 8.84, 8.84, 8.95, 8.18, 7.38, 6.56, 6.84, 7.68, 8.43, 9.65, 10.66, 11.66, 12.27, 12.27, 11.6, 10.51, 9.24, 7.49, 5.67, 5.06, 4.34, 4.4, 3.58, 4.47, 4.92, 5.36, 5.36, 6.71, 8.49, 8.94, 8.91, 9.79, 9.68, 10.14, 10.14, 10.14, 10.14, 9.92, 9.66, 9.77, 9.77, 9.92, 10.25, 2.23, 2.48, 2.86, 2.84, 3.08, 3.49, 3.49, 3.47, 4.12, 3.85, 3.85, 5.36, 5.21, 4.6, 5.98, 5.98, 5.36, 5.72, 5.03, 5.15, 6.28, 6.28, 6.63, 5.59, 5.24, 5.89, 6.04, 6.31, 6.04, 6.18, 6.79, 7.82, 7.41, 4.19, -3.82, -5.36, -5.36, -5.09, -4.6, -3.93, -0.98, 1.55, 4.02, 6.73, 9.0, 10.66, 10.66, 10.66, 10.66, 11.03, 10.63, 10.58, 9.8, 8.66, 8.94, 9.6, 10.01, 10.01, 8.84, 8.05, 6.56, 7.59, 9.03, 10.15, 11.6, 12.79, 13.19, 13.25, 12.27, 10.84, 9.7, 8.05, 6.52, 5.8, 4.44, 3.72, 4.24, 3.58, 4.47, 4.92, 5.36, 5.36, 6.71, 8.49, 8.94, 8.91, 9.79, 9.68, 10.14, 10.14, 10.14, 10.14, 9.92, 9.66, 9.77, 9.77, 9.92, 10.25, 2.48, 2.86, 3.49, 3.49, 3.47, 3.47, 3.84, 3.84, 4.12, 3.85, 4.1, 4.47, 5.46, 5.21, 4.83, 5.21, 5.21, 5.1, 5.37, 6.28, 5.82, 5.93, 6.28, 6.32, 6.64, 6.01, 6.18, 6.18, 6.18, 7.15, 8.8, 8.8, 8.82, 7.68, 1.27, -4.92, -4.02, -4.38, -3.6, 0.0, 2.4, 6.39, 8.68, 10.41, 10.29, 10.01, 10.01, 10.37, 10.66, 10.66, 10.63, 9.8, 8.95, 9.24, 8.73, 10.18, 10.51, 10.43, 8.72, 7.36, 7.24, 9.05, 10.95, 12.56, 13.91, 14.05, 13.75, 12.89, 11.6, 10.12, 8.45, 7.25, 6.43, 5.72, 4.34, 4.29, 4.47, 4.34, 4.38, 5.81, 6.71, 7.15, 8.05, 8.49, 8.46, 9.26, 9.26, 9.8, 10.25, 10.25, 9.68, 9.68, 9.49, 9.36, 9.03, 9.03, 9.66, 10.14, 2.86, 3.12, 3.22, 3.49, 3.47, 3.84, 3.84, 4.12, 4.12, 4.12, 4.12, 4.1, 5.21, 4.83, 5.46, 5.21, 5.21, 4.94, 5.37, 5.82, 5.49, 5.72, 5.37, 5.24, 5.89, 6.3, 5.24, 5.69, 6.55, 8.17, 9.24, 9.36, 9.03, 9.32, 7.28, 4.74, 3.72, 1.98, 3.22, 6.18, 8.82, 10.04, 10.04, 10.04, 9.34, 8.93, 9.62, 10.37, 10.37, 9.62, 8.85, 9.06, 8.95, 8.66, 9.56, 9.96, 9.56, 8.95, 7.36, 7.01, 8.31, 11.37, 13.23, 14.33, 14.42, 14.05, 13.25, 12.16, 10.81, 9.43, 8.18, 7.12, 6.56, 5.18, 3.33, 4.02, 4.24, 4.4, 4.98, 6.17, 6.65, 7.6, 8.05, 8.49, 9.35, 10.58, 11.05, 10.69, 9.83, 9.79, 9.24, 9.06, 9.24, 9.36, 8.82, 8.82, 9.24, 10.14, 2.86, 3.12, 3.49, 3.76, 3.84, 4.12, 4.12, 4.12, 4.12, 3.85, 4.12, 3.85, 4.34, 4.98, 5.21, 5.21, 4.96, 4.83, 5.06, 5.82, 6.28, 5.93, 5.37, 5.03, 4.42, 5.31, 5.69, 7.28, 8.91, 8.48, 8.72, 8.4, 8.4, 8.4, 9.45, 9.45, 8.93, 8.24, 7.81, 9.42, 10.43, 10.04, 9.67, 9.34, 9.34, 8.93, 9.26, 9.62, 9.26, 9.26, 8.42, 8.3, 9.06, 9.48, 9.62, 8.6, 7.64, 7.38, 7.25, 7.82, 10.0, 13.01, 14.64, 14.84, 14.42, 14.05, 12.65, 12.27, 11.54, 10.51, 9.06, 8.01, 6.62, 5.06, 3.48, 1.58, 2.84, 3.16, 2.95, 4.6, 5.59, 7.08, 8.0, 8.94, 10.25, 11.51, 12.04, 11.33, 9.83, 9.39, 9.35, 9.24, 8.72, 8.8, 8.82, 8.8, 9.49, 9.68, 2.84, 2.84, 3.49, 3.76, 3.84, 4.12, 4.12, 4.12, 3.85, 3.85, 4.12, 3.85, 4.5, 4.74, 4.0, 4.34, 5.36, 5.53, 5.49, 6.21, 5.84, 5.77, 6.01, 6.01, 5.37, 5.06, 6.52, 7.63, 9.46, 9.45, 7.2, 7.2, 7.2, 7.42, 7.42, 8.05, 7.76, 6.95, 7.06, 8.8, 9.42, 11.33, 10.41, 10.01, 9.26, 9.26, 9.26, 8.85, 8.53, 7.78, 7.36, 8.76, 9.8, 9.89, 8.93, 7.48, 6.45, 7.12, 9.17, 10.04, 11.79, 13.92, 15.08, 14.84, 14.05, 13.59, 12.27, 11.64, 11.2, 10.84, 9.8, 8.3, 7.64, 6.04, 3.48, -0.0, -0.0, 1.27, 1.19, 3.22, 4.65, 6.88, 8.9, 10.73, 12.04, 12.71, 12.3, 11.11, 9.79, 8.94, 9.39, 9.68, 9.13, 8.21, 7.81, 8.4, 9.24, 9.35, 2.84, 3.08, 3.49, 3.49, 3.47, 3.84, 4.12, 4.12, 3.85, 3.85, 4.12, 3.85, 4.34, 4.5, 4.2, 5.1, 5.36, 5.53, 5.77, 5.82, 5.82, 5.37, 4.95, 5.24, 6.87, 6.28, 7.2, 8.17, 8.0, 6.18, 6.63, 6.8, 7.2, 7.2, 7.89, 8.05, 7.76, 7.9, 7.9, 8.17, 10.46, 11.03, 10.79, 10.59, 10.94, 9.17, 8.76, 8.12, 6.7, 7.27, 7.95, 9.17, 9.8, 9.06, 7.36, 5.76, 5.86, 8.01, 9.96, 11.2, 12.53, 13.92, 14.84, 14.58, 13.75, 12.86, 11.64, 10.98, 10.92, 10.12, 8.59, 7.51, 6.09, 5.46, 3.91, 3.2, -0.0, -1.6, -1.41, -0.0, 4.11, 8.29, 11.18, 12.94, 13.18, 12.01, 11.5, 10.18, 9.39, 8.9, 8.49, 8.63, 8.4, 7.81, 7.82, 8.56, 9.21, 9.34, 2.82, 3.08, 3.49, 3.49, 3.47, 3.47, 3.47, 3.72, 3.45, 3.45, 3.72, 3.72, 4.94, 4.94, 5.21, 5.3, 5.21, 5.53, 6.44, 6.55, 5.84, 4.29, 3.72, 4.29, 5.06, 5.93, 6.13, 7.63, 6.28, 5.37, 6.13, 7.63, 8.48, 8.48, 7.42, 7.07, 6.01, 6.32, 8.24, 9.32, 9.86, 10.0, 9.3, 9.42, 9.17, 9.8, 8.01, 7.36, 6.53, 6.98, 6.83, 8.42, 8.66, 8.59, 7.24, 5.63, 6.45, 8.12, 10.04, 10.96, 12.53, 13.92, 13.91, 13.64, 12.27, 11.64, 10.98, 9.96, 9.48, 8.18, 6.79, 5.06, 4.47, 4.34, 3.91, 3.16, 0.0, -2.53, -2.68, 4.47, 8.91, 10.25, 12.5, 13.23, 12.44, 11.47, 10.0, 9.06, 8.45, 8.45, 8.05, 7.71, 8.17, 7.82, 8.17, 8.73, 8.9, 8.9, 2.82, 2.82, 3.49, 3.49, 3.47, 3.47, 3.47, 3.47, 3.45, 3.45, 3.47, 3.22, 5.59, 6.01, 5.82, 5.82, 5.82, 6.45, 7.2, 7.37, 6.98, 5.69, 5.06, 4.74, 4.29, 5.06, 5.36, 5.72, 5.37, 5.37, 6.64, 7.94, 8.06, 8.0, 6.79, 5.24, 5.37, 6.63, 7.9, 8.73, 9.09, 9.46, 8.82, 8.53, 8.54, 7.73, 8.54, 8.22, 7.97, 7.97, 7.95, 7.64, 8.3, 8.3, 7.51, 6.7, 7.36, 8.22, 9.05, 10.43, 13.01, 13.72, 12.98, 12.23, 11.28, 9.89, 9.89, 9.17, 8.01, 5.72, 4.33, 3.76, 3.39, 3.09, 1.83, 1.19, 0.0, 0.0, 2.4, 8.82, 13.72, 12.88, 13.56, 12.87, 11.72, 10.09, 9.2, 8.0, 7.21, 6.98, 7.15, 6.98, 7.21, 7.76, 8.17, 8.77, 8.9, 8.9, 2.82, 2.82, 3.08, 3.49, 3.49, 3.47, 3.47, 3.47, 3.22, 3.22, 2.8, 2.82, 2.82, 3.47, 4.5, 5.2, 5.53, 6.79, 7.81, 6.98, 6.63, 6.01, 6.01, 6.01, 5.69, 5.37, 5.06, 5.36, 5.72, 5.93, 6.52, 6.9, 7.6, 7.44, 7.21, 6.01, 5.37, 5.82, 7.9, 7.9, 7.68, 7.9, 7.48, 7.08, 6.57, 6.97, 7.36, 7.08, 8.6, 8.93, 8.85, 9.17, 8.01, 8.42, 8.42, 7.64, 7.48, 8.02, 8.8, 11.8, 13.72, 14.42, 14.6, 12.62, 10.63, 9.17, 9.17, 8.53, 6.71, 5.35, 4.44, 3.69, 3.61, 1.72, 0.0, 0.0, 0.0, 1.05, 7.03, 12.65, 15.87, 15.74, 14.26, 12.4, 10.65, 9.52, 7.6, 6.26, 5.43, 6.02, 6.26, 6.21, 6.94, 7.53, 8.48, 8.99, 9.24, 9.35, 2.36, 2.82, 3.08, 3.49, 3.49, 3.47, 3.47, 3.04, 2.8, 2.8, 2.8, 3.04, 2.82, 2.36, 3.99, 4.26, 5.53, 4.74, 4.74, 3.49, 4.87, 4.87, 5.15, 4.68, 5.59, 5.59, 5.69, 7.28, 6.63, 6.01, 5.31, 5.84, 6.18, 5.69, 5.1, 6.3, 7.21, 7.9, 6.53, 6.7, 7.18, 6.7, 6.7, 5.92, 6.44, 6.42, 6.42, 6.95, 7.27, 8.31, 10.63, 11.6, 11.25, 11.64, 11.28, 9.96, 9.34, 7.15, 8.77, 13.32, 16.05, 15.52, 14.16, 12.89, 10.58, 9.8, 10.22, 9.34, 7.27, 5.89, 6.18, 5.64, 3.91, 0.0, -1.4, -2.21, 0.0, 5.24, 11.79, 15.52, 15.74, 14.95, 13.39, 12.08, 10.15, 8.93, 6.94, 5.29, 4.19, 4.6, 4.57, 5.81, 5.73, 6.88, 8.06, 8.99, 9.24, 9.24, 2.18, 2.84, 2.84, 3.08, 3.49, 2.82, 3.04, 3.04, 2.8, 2.8, 2.8, 3.04, 3.04, 2.36, 2.32, 2.8, 3.45, 3.45, 2.8, 2.18, 2.44, 2.86, 2.84, 3.8, 3.8, 4.96, 5.21, 4.12, 4.94, 4.2, 4.2, 4.94, 5.82, 4.5, 4.5, 4.96, 5.28, 5.9, 6.04, 6.42, 6.7, 6.15, 5.9, 5.98, 5.72, 6.64, 7.81, 8.37, 8.37, 9.48, 11.26, 13.25, 14.39, 16.6, 15.35, 13.87, 12.89, 7.82, 8.0, 14.28, 16.96, 16.6, 14.22, 12.27, 11.25, 12.87, 14.88, 13.75, 11.27, 9.66, 7.67, 6.01, 3.11, 0.0, -2.68, 0.0, 4.89, 10.4, 13.45, 14.88, 14.88, 13.88, 12.87, 11.9, 10.19, 8.3, 6.44, 4.92, 4.22, 3.48, 2.84, 3.39, 4.47, 6.36, 7.53, 8.56, 9.21, 9.68, 2.18, 2.4, 2.84, 2.84, 3.08, 2.82, 2.82, 3.04, 2.8, 2.8, 2.8, 2.8, 2.8, 2.8, 2.32, 2.32, 2.32, 2.32, 2.32, 2.18, 1.73, 1.76, 1.73, 1.7, 2.32, 2.29, 2.75, 2.92, 2.26, 2.26, 2.57, 3.63, 3.45, 3.45, 3.45, 3.63, 4.0, 5.21, 4.96, 5.76, 5.9, 5.9, 6.04, 5.36, 6.32, 7.21, 9.6, 10.21, 10.21, 10.21, 10.4, 11.34, 13.15, 14.75, 16.0, 15.19, 14.33, 11.5, 8.05, 12.74, 15.91, 14.79, 12.65, 10.66, 12.39, 14.95, 18.57, 19.93, 17.19, 14.42, 10.43, 7.2, 4.98, 4.4, 5.37, 8.18, 11.03, 13.26, 14.02, 13.41, 11.8, 11.14, 10.12, 9.36, 10.3, 8.64, 6.45, 5.75, 6.21, 5.36, 3.39, 3.13, 4.82, 6.57, 7.53, 8.48, 9.21, 9.68, 2.18, 2.4, 2.84, 2.84, 2.84, 2.82, 2.82, 3.04, 2.8, 2.8, 2.8, 2.8, 2.8, 2.8, 2.32, 2.32, 2.32, 2.32, 2.32, 2.36, 1.73, 1.73, 1.73, 1.7, 1.67, 1.65, 1.76, 1.73, 1.18, 1.18, 1.18, 1.67, 2.58, 2.54, 3.45, 3.63, 3.8, 4.71, 5.1, 4.96, 5.21, 4.96, 6.01, 6.32, 6.87, 8.15, 8.4, 9.6, 9.8, 9.8, 9.6, 10.18, 10.47, 10.47, 10.16, 9.57, 11.17, 14.33, 13.57, 12.04, 13.76, 13.19, 11.5, 11.62, 12.3, 13.78, 16.56, 18.21, 19.01, 15.03, 11.64, 7.76, 6.88, 9.13, 11.04, 12.87, 14.2, 13.8, 13.12, 11.38, 10.01, 8.18, 7.28, 6.62, 8.46, 7.36, 6.95, 7.15, 8.24, 7.67, 6.07, 5.82, 6.44, 7.2, 7.03, 8.56, 9.49, 9.97, 1.73, 2.2, 2.2, 2.4, 2.4, 2.36, 2.36, 3.04, 2.8, 2.8, 2.8, 2.8, 2.8, 2.8, 2.32, 2.32, 2.32, 2.32, 2.32, 1.67, 1.7, 1.73, 1.88, 1.7, 1.67, 1.23, 1.12, 0.57, 0.56, 0.0, 0.0, 0.0, 1.33, 2.46, 2.46, 4.2, 4.66, 5.1, 5.21, 4.26, 4.5, 4.96, 4.71, 6.32, 6.87, 7.81, 8.54, 8.8, 9.2, 9.2, 9.2, 9.21, 7.81, 6.52, 5.93, 6.87, 8.37, 12.33, 14.68, 13.01, 11.84, 10.8, 10.8, 11.62, 12.08, 13.23, 15.93, 15.47, 14.56, 13.49, 10.98, 8.82, 9.13, 11.37, 12.89, 13.46, 13.37, 12.23, 11.19, 10.05, 8.31, 6.56, 5.0, 4.31, 4.71, 6.84, 8.31, 9.04, 9.52, 9.4, 8.73, 7.95, 7.95, 7.69, 7.44, 9.97, 10.68, 10.68, 1.73, 1.73, 2.2, 2.2, 2.4, 2.36, 2.36, 3.04, 2.8, 2.8, 2.8, 2.8, 2.8, 2.8, 2.8, 2.32, 2.32, 2.14, 1.65, 1.67, 1.73, 1.73, 1.7, 1.26, 1.14, 0.57, 0.0, 0.0, 0.0, 0.0, 0.0, 0.0, 0.0, 1.26, 2.83, 3.91, 4.34, 4.5, 4.0, 3.8, 3.4, 4.26, 4.96, 6.64, 7.21, 7.81, 8.54, 8.54, 8.54, 8.15, 8.0, 8.0, 7.21, 6.01, 5.37, 5.93, 8.22, 10.21, 11.6, 11.2, 9.65, 8.58, 9.1, 9.2, 9.21, 12.02, 12.42, 13.02, 13.39, 13.23, 9.89, 9.65, 10.85, 12.15, 12.62, 12.33, 11.65, 10.86, 9.54, 8.86, 7.93, 6.56, 5.35, 5.29, 6.04, 7.68, 9.0, 10.04, 10.04, 9.4, 9.04, 7.68, 7.68, 8.3, 9.08, 10.32, 10.52, 10.52, 1.73, 1.73, 1.73, 1.73, 2.4, 2.18, 2.36, 2.82, 2.8, 2.8, 2.8, 3.0, 2.8, 2.8, 2.8, 2.32, 2.14, 1.65, 1.65, 1.67, 1.16, 1.07, 0.59, 0.58, 0.0, 0.0, -0.57, -1.2, -1.2, -1.12, -1.12, -0.57, 0.0, 0.0, 2.51, 3.27, 4.12, 4.0, 4.14, 4.14, 4.14, 4.95, 6.01, 6.01, 7.56, 8.93, 8.93, 8.37, 7.56, 7.21, 6.32, 5.72, 5.72, 5.72, 6.52, 7.07, 7.44, 6.87, 6.95, 7.9, 8.22, 6.95, 6.87, 6.7, 7.74, 9.36, 11.12, 10.62, 12.45, 13.74, 11.38, 9.27, 10.85, 11.66, 11.06, 10.71, 9.92, 9.67, 9.12, 8.99, 9.89, 9.24, 8.3, 7.52, 7.9, 8.02, 8.38, 8.73, 8.38, 8.38, 7.68, 7.02, 7.68, 9.45, 10.4, 10.27, 10.4, 10.4, 1.08, 1.57, 1.73, 1.73, 2.4, 2.18, 2.36, 2.82, 2.8, 2.8, 3.0, 3.0, 3.0, 2.8, 2.8, 2.32, 2.32, 2.32, 2.32, 1.67, 0.53, 0.0, 0.0, 0.0, 0.0, -1.12, -1.67, -1.67, -1.84, -1.16, -0.54, 0.0, 0.0, 0.53, 1.14, 2.67, 3.4, 3.8, 4.37, 4.14, 5.59, 6.64, 6.64, 7.56, 7.9, 7.9, 7.9, 7.56, 6.3, 6.3, 6.01, 4.96, 6.01, 6.01, 6.01, 7.07, 6.63, 6.64, 6.3, 6.98, 6.98, 7.27, 7.21, 6.52, 7.74, 8.9, 9.35, 9.54, 9.86, 10.43, 10.19, 10.01, 10.04, 8.85, 7.36, 7.32, 8.25, 8.25, 8.99, 10.01, 11.47, 11.7, 11.38, 8.85, 8.64, 8.12, 8.18, 7.76, 7.76, 8.12, 7.68, 7.76, 8.3, 10.4, 11.02, 10.63, 10.09, 10.09, 1.23, 1.08, 1.73, 1.73, 2.4, 2.18, 2.36, 3.04, 2.8, 2.8, 3.0, 3.0, 3.0, 2.8, 2.8, 3.6, 2.8, 2.8, 2.29, 1.76, 0.0, 0.0, 0.61, 0.89, 0.83, 0.0, 0.0, 0.0, 0.96, 0.55, 1.19, 1.16, 0.59, 0.58, 0.58, 1.14, 1.14, 1.8, 2.54, 4.2, 4.5, 5.63, 5.46, 6.3, 6.58, 6.58, 6.3, 6.3, 6.01, 6.01, 6.01, 5.72, 6.32, 6.32, 7.21, 7.21, 7.07, 7.56, 7.27, 7.56, 6.98, 7.81, 7.47, 6.44, 7.35, 9.24, 9.24, 7.35, 6.39, 6.71, 7.69, 9.48, 8.59, 5.8, 3.36, 2.49, 3.28, 5.73, 8.31, 9.7, 10.54, 10.83, 10.31, 9.53, 9.0, 8.42, 8.18, 7.33, 8.18, 7.68, 8.73, 9.04, 10.04, 10.48, 11.64, 11.04, 10.41, 10.41, 1.23, 1.08, 1.73, 1.73, 2.4, 2.36, 2.36, 3.04, 2.8, 2.8, 3.0, 3.0, 3.0, 2.8, 2.32, 2.32, 2.8, 2.32, 2.69, 2.69, 1.73, 1.73, 2.86, 4.42, 4.26, 4.26, 4.26, 3.45, 3.45, 2.77, 2.29, 2.29, 1.65, 1.12, 1.12, 1.12, 1.23, 0.57, 1.12, 1.76, 2.26, 2.92, 2.92, 3.6, 3.4, 4.88, 5.21, 5.21, 5.21, 5.21, 4.96, 5.72, 6.87, 7.56, 7.06, 7.06, 7.56, 6.32, 5.9, 7.27, 6.95, 7.21, 6.95, 7.21, 8.3, 8.8, 8.14, 6.44, 5.59, 4.83, 4.87, 5.67, 4.04, 0.81, -0.79, -0.86, 0.0, 3.53, 8.31, 8.18, 8.18, 7.93, 8.18, 8.93, 8.73, 8.32, 7.95, 7.96, 7.68, 8.32, 9.4, 10.41, 10.66, 11.04, 10.79, 10.63, 9.96, 9.96, 1.08, 1.19, 1.73, 1.88, 2.18, 2.36, 2.36, 2.8, 2.8, 2.8, 3.0, 3.0, 2.8, 2.32, 2.32, 2.32, 2.32, 1.8, 1.65, 2.69, 3.6, 3.49, 4.12, 4.12, 3.84, 3.4, 3.6, 3.37, 3.37, 2.92, 2.4, 2.26, 2.26, 1.63, 1.76, 1.76, 1.76, 1.2, 1.2, 1.76, 1.73, 2.26, 2.4, 2.4, 2.75, 3.7, 4.0, 4.0, 4.0, 3.8, 4.71, 6.01, 7.21, 7.56, 8.37, 7.06, 6.95, 6.24, 6.24, 6.01, 6.87, 6.32, 6.64, 8.0, 8.72, 8.3, 7.03, 6.73, 6.53, 5.76, 5.93, 4.24, 0.83, -1.7, -2.47, -0.89, 3.7, 5.2, 5.67, 5.91, 6.52, 6.56, 7.78, 8.32, 8.79, 9.43, 9.76, 9.57, 9.56, 8.3, 10.04, 11.03, 10.63, 10.19, 9.9, 9.53, 9.23, 9.23, 1.19, 1.19, 1.73, 2.18, 2.18, 2.36, 2.36, 2.8, 2.8, 3.0, 2.77, 2.77, 2.32, 2.32, 2.32, 2.32, 2.32, 1.65, 1.12, 1.8, 2.32, 3.04, 3.04, 2.8, 2.77, 2.26, 2.4, 2.23, 2.23, 2.4, 1.73, 1.73, 1.73, 1.73, 1.63, 1.63, 1.73, 1.63, 1.76, 1.76, 1.76, 2.26, 2.26, 2.26, 2.96, 2.77, 3.7, 4.0, 4.0, 3.8, 5.31, 6.64, 7.56, 7.56, 7.56, 8.0, 7.35, 6.83, 6.3, 5.03, 5.37, 6.32, 7.06, 8.43, 8.8, 7.82, 6.79, 6.73, 7.35, 9.08, 10.12, 10.76, 6.57, 0.0, 4.54, 5.21, 4.31, 2.99, 2.22, 2.93, 5.06, 7.18, 8.42, 9.42, 10.04, 11.04, 11.28, 11.64, 10.82, 9.57, 9.57, 10.19, 10.18, 9.53, 8.85, 8.85, 9.26, 9.26, 1.19, 1.19, 1.73, 2.18, 2.18, 2.36, 2.36, 2.82, 2.8, 3.0, 2.77, 2.77, 2.32, 2.32, 2.32, 2.32, 1.8, 1.65, 1.12, 1.14, 1.26, 1.84, 1.84, 1.67, 1.65, 1.76, 1.73, 1.73, 1.73, 1.73, 1.18, 1.1, 1.1, 1.1, 1.1, 1.1, 1.1, 1.76, 1.76, 1.76, 1.76, 1.73, 2.26, 2.26, 2.44, 2.77, 2.46, 2.69, 3.8, 5.59, 6.64, 7.56, 7.56, 7.56, 7.21, 7.21, 7.35, 7.59, 6.01, 3.91, 5.49, 7.15, 8.42, 8.82, 8.43, 7.41, 6.73, 6.79, 7.15, 7.41, 9.3, 11.63, 6.04, 8.0, 7.59, 5.95, 3.53, 1.48, 0.78, 1.73, 4.74, 7.2, 8.8, 10.4, 11.6, 12.27, 12.27, 12.26, 12.22, 11.54, 9.84, 9.53, 9.48, 8.79, 8.46, 8.16, 9.27, 9.27, 1.19, 1.19, 1.73, 2.4, 2.36, 2.36, 2.36, 2.82, 2.8, 2.8, 3.0, 2.77, 3.0, 2.32, 2.32, 1.67, 1.8, 1.65, 1.12, 1.14, 1.16, 1.26, 1.84, 1.67, 1.8, 1.65, 1.1, 1.1, 1.1, 1.1, 1.1, 1.1, 1.1, 1.1, 1.1, 1.1, 1.2, 1.2, 1.12, 1.12, 1.2, 1.76, 1.76, 1.76, 1.76, 1.76, 2.33, 3.8, 4.96, 6.01, 6.3, 6.3, 6.3, 6.32, 6.87, 6.87, 6.73, 7.97, 6.69, 5.06, 5.21, 7.2, 8.06, 8.12, 7.76, 7.35, 7.76, 7.56, 6.45, 5.69, 5.06, 6.93, 7.45, 7.48, 7.24, 6.67, 4.72, 1.4, 0.0, 2.68, 3.9, 5.75, 8.14, 10.68, 11.64, 12.27, 12.27, 12.26, 12.22, 12.16, 10.92, 9.1, 8.44, 7.8, 7.85, 8.22, 9.56, 9.56, 1.19, 1.19, 1.73, 1.73, 2.4, 2.36, 2.82, 3.04, 2.8, 2.8, 3.0, 2.77, 2.77, 2.49, 2.32, 1.67, 1.8, 1.65, 1.12, 1.14, 1.14, 1.14, 1.67, 1.67, 1.23, 1.12, 1.2, 1.1, 1.1, 1.1, 1.2, 1.2, 0.61, 0.61, 0.61, 0.61, 1.2, 1.12, 0.57, 0.57, 0.57, 1.12, 1.76, 1.76, 1.76, 1.76, 2.29, 2.77, 3.42, 3.4, 3.4, 5.1, 4.96, 6.01, 6.32, 6.32, 6.87, 6.39, 7.27, 7.21, 7.07, 6.55, 7.15, 7.68, 7.68, 7.68, 7.68, 6.95, 5.89, 2.82, 1.75, 4.1, 8.11, 7.78, 7.13, 6.7, 4.4, 2.2, -0.0, -0.0, 2.68, 5.34, 9.08, 11.04, 12.27, 11.28, 10.98, 10.58, 10.84, 11.11, 11.38, 9.43, 8.44, 8.42, 8.27, 8.65, 9.52, 9.52, 1.19, 1.19, 1.73, 1.73, 2.4, 2.18, 2.36, 3.04, 2.8, 2.8, 3.0, 2.77, 2.77, 2.77, 2.32, 1.8, 1.8, 1.12, 1.23, 1.14, 1.14, 1.67, 1.67, 1.8, 1.12, 1.12, 1.2, 0.61, 0.61, 0.61, 0.61, 0.61, 0.61, 0.61, 0.57, 0.57, 0.57, 0.57, 0.57, 0.57, 0.58, 1.14, 1.12, 1.76, 1.76, 2.29, 2.29, 2.49, 2.29, 2.26, 2.4, 2.96, 4.96, 6.32, 6.64, 7.21, 6.01, 6.28, 6.52, 7.81, 6.95, 6.95, 6.01, 6.64, 7.68, 7.68, 7.68, 7.35, 4.96, 3.27, 2.44, 3.82, 6.79, 9.17, 8.64, 8.12, 6.05, 1.66, 0.0, 0.0, 4.4, 7.42, 10.48, 11.75, 11.79, 10.92, 10.22, 9.89, 9.48, 9.48, 10.84, 10.07, 9.48, 8.9, 8.59, 9.04, 9.27, 9.27, 1.19, 1.19, 1.19, 1.7, 1.7, 1.7, 2.36, 2.36, 3.04, 2.8, 2.8, 3.0, 2.77, 2.77, 2.29, 2.14, 1.8, 1.23, 1.14, 1.67, 1.67, 1.67, 1.8, 1.12, 1.12, 1.12, 0.57, 0.57, 0.57, 0.57, 0.57, 0.0, 0.0, 0.57, 0.57, 0.57, 0.57, 0.57, 1.14, 1.67, 2.16, 2.36, 2.32, 2.32, 2.29, 2.29, 2.29, 2.32, 2.29, 2.29, 2.29, 3.0, 3.45, 4.47, 5.89, 6.32, 6.32, 6.28, 5.49, 6.01, 5.98, 5.76, 6.87, 6.64, 8.49, 7.35, 7.68, 5.76, 4.0, 3.32, 2.57, 2.47, 5.76, 9.26, 10.37, 9.26, 7.64, 4.6, 2.82, 3.97, 6.64, 9.3, 11.16, 10.81, 10.18, 9.8, 9.8, 9.06, 8.85, 9.26, 9.56, 10.52, 10.84, 10.3, 9.21, 8.93, 8.3, 8.3, 1.16, 1.16, 1.16, 1.84, 1.84, 2.36, 2.36, 2.82, 2.82, 2.8, 2.8, 2.32, 2.29, 2.29, 2.29, 2.14, 1.8, 1.8, 1.67, 1.67, 1.67, 1.8, 1.65, 1.12, 1.12, 1.12, 0.57, 0.57, 0.57, 0.57, 0.0, 0.0, 0.0, 0.58, 0.53, 0.57, 0.57, 1.14, 2.36, 2.82, 3.04, 3.04, 2.8, 2.8, 2.32, 2.8, 2.32, 2.32, 2.32, 2.32, 2.8, 3.45, 4.1, 4.47, 4.75, 5.89, 6.32, 6.28, 5.37, 5.24, 4.96, 5.64, 6.04, 6.83, 7.27, 8.49, 5.76, 4.34, 3.32, 2.47, 2.47, 2.54, 4.42, 7.41, 10.04, 9.17, 8.45, 8.05, 7.38, 6.7, 7.64, 8.22, 8.82, 8.49, 7.36, 7.36, 7.63, 8.01, 8.64, 9.04, 9.4, 9.26, 10.51, 10.18, 9.21, 8.3, 8.3, 8.3, 1.14, 1.14, 1.67, 2.32, 2.32, 2.8, 2.8, 3.04, 2.8, 2.32, 2.32, 2.32, 2.32, 2.14, 2.32, 2.32, 2.32, 2.32, 2.16, 1.67, 1.67, 1.8, 1.12, 1.12, 1.12, 0.57, 0.57, 0.57, 0.57, 0.61, 0.0, 0.0, 0.0, 0.0, 0.58, 0.58, 1.14, 1.88, 2.84, 2.82, 3.47, 3.22, 2.8, 4.42, 4.68, 3.47, 2.32, 2.36, 3.49, 2.82, 3.47, 4.1, 4.75, 4.75, 4.47, 4.39, 5.59, 5.31, 5.37, 4.68, 4.12, 4.2, 5.46, 6.59, 7.18, 7.27, 6.53, 3.27, 1.75, 0.81, 2.44, 4.83, 5.49, 6.21, 6.73, 6.57, 7.38, 8.31, 8.86, 8.31, 8.3, 7.61, 7.24, 6.31, 5.99, 5.3, 5.18, 6.83, 8.42, 8.42, 7.68, 7.13, 6.79, 8.85, 8.9, 8.65, 8.32, 8.32, 1.67, 1.67, 2.32, 3.0, 2.77, 2.96, 3.0, 2.8, 2.8, 2.8, 2.32, 2.32, 1.8, 1.8, 2.32, 2.32, 2.32, 2.32, 2.16, 1.67, 1.67, 1.12, 1.12, 1.12, 0.57, 0.57, 0.57, 0.57, 0.57, 0.0, 0.0, 0.0, 0.0, 0.0, 0.53, 0.59, 1.73, 2.44, 3.12, 2.82, 3.04, 2.8, 3.04, 4.12, 4.45, 5.1, 4.42, 3.83, 4.74, 4.75, 4.75, 4.08, 4.47, 4.08, 3.84, 4.1, 3.45, 3.47, 4.42, 3.77, 3.6, 4.34, 5.21, 5.9, 6.83, 7.35, 6.95, 6.01, 1.63, 0.82, 4.01, 6.79, 6.73, 5.37, 3.97, 4.34, 5.52, 6.7, 8.31, 8.99, 8.31, 6.96, 6.53, 5.17, 4.21, 3.69, 4.83, 6.07, 6.44, 6.01, 5.21, 5.21, 5.38, 8.07, 8.22, 8.59, 9.27, 9.27, 2.32, 2.32, 2.8, 2.77, 3.42, 3.4, 3.42, 2.77, 3.0, 3.0, 2.8, 2.32, 1.8, 1.67, 1.67, 2.36, 2.36, 2.16, 2.16, 1.67, 1.8, 1.12, 1.2, 1.2, 1.2, 0.57, 0.57, 0.57, 0.57, 0.0, 0.0, 0.0, 0.0, 0.0, 0.59, 1.19, 1.76, 2.22, 2.2, 1.7, 1.84, 2.36, 3.49, 4.11, 4.12, 4.68, 5.1, 4.75, 4.47, 4.1, 3.84, 3.64, 3.64, 3.64, 3.42, 3.68, 3.45, 3.47, 2.82, 3.4, 2.67, 3.45, 4.2, 5.64, 5.76, 6.39, 7.06, 7.27, 4.71, 3.49, 5.51, 7.35, 8.03, 6.64, 5.24, 4.5, 5.46, 5.76, 5.93, 7.36, 7.25, 6.48, 5.36, 3.99, 3.61, 3.47, 3.82, 4.8, 4.29, 3.2, 3.09, 3.09, 4.6, 6.53, 7.59, 8.93, 9.34, 9.34, 2.32, 2.32, 3.0, 2.96, 2.92, 3.4, 3.4, 3.42, 3.45, 3.0, 3.0, 2.8, 2.32, 1.67, 1.84, 2.36, 2.36, 2.16, 1.67, 1.67, 1.8, 1.65, 1.2, 1.2, 1.2, 1.12, 0.57, 0.57, 0.89, 0.57, 0.58, 0.58, 1.16, 1.16, 1.16, 1.19, 1.11, 1.58, 1.08, 0.54, 1.19, 2.86, 3.49, 3.79, 3.78, 3.47, 3.45, 3.84, 3.42, 3.42, 2.96, 2.96, 2.96, 2.96, 2.96, 3.45, 3.45, 3.04, 2.36, 2.36, 2.54, 3.45, 4.0, 4.6, 5.89, 5.77, 5.82, 5.72, 5.72, 5.72, 6.44, 6.8, 8.37, 8.53, 8.53, 7.48, 6.7, 6.0, 4.17, 4.39, 4.46, 3.66, 3.73, 2.9, 3.0, 3.13, 3.04, 2.8, 3.0, 2.51, 2.51, 3.4, 5.59, 7.69, 8.32, 9.2, 9.83, 9.83, 2.32, 2.32, 2.77, 2.96, 3.4, 3.4, 3.4, 3.42, 3.42, 2.77, 2.8, 2.32, 2.32, 2.32, 1.7, 1.84, 1.84, 2.16, 2.32, 2.32, 1.8, 1.65, 1.76, 1.1, 1.1, 1.2, 1.12, 0.57, 1.12, 1.75, 1.14, 1.67, 1.67, 1.67, 1.14, 1.19, 1.11, 0.57, 0.0, 0.55, 2.48, 4.0, 4.07, 4.07, 3.49, 2.82, 2.8, 3.0, 2.77, 3.0, 3.0, 2.77, 2.96, 3.42, 3.42, 3.45, 3.45, 3.04, 2.36, 2.16, 1.65, 2.69, 4.0, 5.24, 6.01, 6.44, 6.18, 5.37, 5.72, 6.69, 7.35, 5.69, 5.69, 8.22, 10.75, 10.01, 7.38, 5.72, 3.68, 2.82, 2.82, 2.88, 3.61, 4.6, 3.6, 2.8, 1.6, 0.85, 1.98, 2.99, 4.68, 4.56, 6.44, 8.63, 9.26, 9.97, 9.58, 9.58, 2.77, 2.77, 2.96, 2.92, 3.4, 3.6, 3.83, 3.64, 3.42, 2.77, 2.32, 2.32, 2.32, 2.32, 1.84, 1.84, 2.16, 2.32, 2.32, 2.32, 1.8, 1.65, 1.76, 1.1, 1.1, 1.2, 1.12, 0.57, 0.57, 1.12, 1.65, 1.65, 1.65, 1.65, 1.14, 1.16, 0.57, 0.0, 0.0, 2.2, 5.08, 5.81, 4.84, 4.11, 3.49, 2.82, 3.04, 2.8, 2.8, 3.0, 3.0, 3.0, 3.45, 3.42, 3.42, 3.42, 3.68, 3.45, 2.8, 2.32, 2.33, 2.54, 3.91, 5.69, 6.18, 6.44, 6.44, 6.11, 6.32, 6.69, 7.9, 7.27, 6.01, 7.59, 9.7, 9.89, 8.84, 6.43, 4.58, 2.95, 3.53, 4.71, 6.05, 6.24, 5.46, 3.51, 2.23, 1.33, 3.33, 5.24, 5.89, 6.11, 6.98, 8.05, 8.49, 9.26, 9.26, 9.26, 2.77, 2.77, 2.75, 3.4, 3.6, 4.05, 4.05, 3.4, 3.4, 2.96, 2.8, 2.32, 2.32, 1.8, 1.67, 2.36, 2.32, 2.32, 2.32, 2.32, 1.8, 1.65, 1.2, 1.1, 1.1, 1.1, 1.12, 0.57, 0.57, 0.57, 1.12, 1.12, 1.12, 1.12, 1.14, 0.59, 0.0, -0.54, 0.0, 4.12, 6.95, 6.67, 5.49, 4.12, 3.47, 2.82, 2.82, 3.04, 2.8, 2.8, 3.22, 3.45, 3.68, 3.84, 3.84, 4.08, 3.84, 3.42, 3.42, 2.26, 1.73, 2.54, 5.06, 6.28, 7.07, 6.28, 5.77, 5.69, 5.59, 6.42, 6.79, 8.22, 7.27, 7.78, 7.51, 8.95, 9.11, 8.84, 7.38, 6.0, 6.14, 7.27, 7.59, 7.59, 6.24, 4.43, 3.78, 5.37, 6.01, 5.89, 6.32, 6.6, 7.6, 7.56, 7.56, 7.6, 8.36, 8.36, 2.96, 2.96, 3.4, 3.6, 4.05, 4.05, 4.05, 3.6, 3.4, 2.96, 2.77, 2.32, 2.32, 2.16, 2.36, 2.36, 2.32, 2.32, 2.32, 2.32, 1.65, 1.76, 1.2, 1.2, 1.1, 1.1, 1.2, 0.57, 0.57, 0.57, 1.12, 1.23, 1.12, 1.12, 1.12, 0.0, -0.59, -1.14, 0.0, 4.08, 6.79, 6.7, 5.59, 4.12, 3.47, 3.47, 3.47, 3.47, 3.47, 3.47, 3.72, 3.85, 4.1, 4.08, 4.08, 4.08, 4.08, 4.08, 3.64, 2.92, 3.37, 3.4, 6.32, 6.79, 6.79, 6.01, 5.37, 4.68, 4.5, 5.49, 6.98, 7.9, 7.96, 6.7, 6.84, 8.53, 9.8, 10.01, 10.01, 8.79, 8.53, 8.53, 7.44, 6.79, 6.14, 5.49, 5.89, 6.18, 6.18, 5.89, 6.11, 6.45, 7.1, 6.94, 6.21, 6.26, 7.56, 7.56, 3.2, 3.2, 3.4, 4.05, 4.05, 4.05, 4.05, 4.05, 3.4, 3.42, 2.77, 2.77, 2.32, 2.32, 2.36, 2.36, 2.32, 2.16, 2.32, 2.32, 2.14, 1.76, 1.76, 1.2, 1.2, 1.2, 1.2, 1.12, 0.57, 0.57, 1.14, 1.14, 1.14, 1.12, 1.12, 0.0, -0.58, -1.12, 0.0, 3.4, 6.28, 6.23, 5.65, 5.53, 3.84, 3.84, 3.47, 3.47, 3.47, 3.84, 4.12, 4.1, 4.1, 4.08, 4.08, 4.08, 4.08, 4.05, 4.08, 3.42, 4.05, 5.36, 7.27, 7.76, 7.41, 6.32, 5.37, 5.24, 5.59, 6.32, 7.35, 7.9, 7.96, 7.19, 6.7, 7.68, 8.53, 8.66, 8.84, 9.37, 9.43, 8.44, 7.36, 5.95, 5.28, 5.38, 5.13, 4.96, 4.96, 4.42, 5.58, 6.71, 6.45, 6.45, 6.17, 5.29, 4.92, 6.26, 3.4, 3.4, 4.05, 4.05, 4.46, 4.46, 4.05, 4.05, 3.4, 2.96, 2.77, 2.29, 2.32, 2.32, 2.82, 2.36, 2.32, 2.36, 2.36, 2.32, 2.14, 1.76, 1.76, 1.76, 1.2, 1.2, 1.2, 1.2, 0.57, 0.57, 1.14, 1.16, 1.14, 1.23, 0.57, 0.0, -0.57, -0.56, 0.59, 3.4, 5.38, 5.69, 5.37, 5.89, 4.1, 3.85, 3.47, 3.84, 4.45, 4.45, 4.75, 4.1, 4.1, 4.08, 4.08, 4.08, 4.08, 4.32, 4.47, 4.1, 4.08, 4.73, 7.27, 6.95, 6.73, 6.01, 6.87, 6.39, 7.41, 7.76, 8.06, 8.22, 6.7, 7.51, 8.12, 6.83, 6.31, 6.7, 7.54, 8.73, 8.66, 8.2, 6.44, 5.3, 4.4, 3.88, 4.0, 3.27, 3.55, 4.89, 5.73, 6.26, 5.94, 5.4, 5.26, 3.95, 4.02, 4.92, 3.4, 3.4, 4.05, 4.46, 4.46, 4.46, 4.05, 4.05, 3.6, 3.2, 2.96, 2.29, 2.32, 2.32, 2.16, 2.32, 2.32, 2.36, 2.36, 2.32, 2.32, 1.76, 1.76, 1.76, 1.76, 1.2, 1.2, 1.2, 1.2, 1.12, 1.14, 0.59, 0.59, 0.58, 0.57, 0.0, -0.56, 0.0, 1.16, 3.37, 4.71, 4.73, 4.47, 4.1, 4.96, 3.85, 3.84, 4.74, 4.75, 4.75, 4.1, 4.1, 4.1, 3.84, 4.08, 4.08, 4.08, 4.73, 4.47, 4.47, 4.1, 4.73, 4.73, 6.3, 7.21, 6.87, 6.44, 6.79, 7.41, 7.76, 7.35, 6.53, 7.27, 9.17, 10.43, 8.07, 6.83, 7.36, 8.59, 8.29, 8.2, 7.11, 5.89, 5.0, 3.69, 3.21, 3.09, 3.72, 4.11, 4.98, 5.36, 5.36, 4.98, 4.4, 4.34, 3.82, 3.13, 4.02, 4.05, 4.05, 4.05, 4.05, 4.46, 4.05, 4.05, 4.05, 3.6, 3.4, 2.75, 2.77, 2.32, 2.32, 2.32, 2.32, 2.32, 2.82, 2.36, 2.32, 2.32, 1.65, 1.76, 1.76, 1.76, 1.2, 1.2, 1.2, 1.2, 1.12, 1.23, 0.53, 0.59, 0.0, 0.0, 0.0, 0.0, 0.0, 1.71, 3.56, 4.05, 4.08, 4.1, 3.45, 3.45, 4.5, 4.12, 4.45, 4.39, 4.1, 3.85, 3.45, 4.1, 4.1, 3.84, 4.08, 4.08, 4.47, 4.75, 4.47, 4.1, 4.47, 6.3, 6.64, 6.32, 7.81, 6.44, 7.44, 6.79, 7.02, 6.95, 6.64, 6.95, 8.22, 9.8, 10.43, 10.3, 10.58, 11.14, 10.34, 8.58, 6.57, 5.68, 5.0, 3.88, 3.2, 3.63, 4.29, 4.4, 4.47, 4.92, 4.92, 4.34, 3.35, 3.39, 3.58, 3.58, 3.58, 4.05, 4.05, 4.05, 4.05, 4.05, 3.83, 3.83, 3.4, 2.92, 2.92, 2.75, 2.77, 2.8, 2.32, 2.32, 2.8, 3.04, 2.82, 2.36, 2.32, 2.32, 1.65, 1.76, 1.76, 1.76, 1.2, 1.2, 1.2, 1.2, 1.2, 1.12, 1.14, 0.58, 0.58, 0.0, 0.0, 0.0, 0.55, 1.81, 2.89, 3.6, 3.64, 3.21, 2.8, 2.8, 3.45, 4.1, 3.85, 3.45, 3.45, 3.45, 3.45, 3.45, 3.85, 4.1, 3.84, 4.08, 4.47, 4.75, 4.75, 4.39, 4.1, 4.1, 6.01, 6.98, 7.44, 7.44, 6.63, 6.79, 6.64, 6.64, 6.73, 7.27, 7.27, 9.42, 10.36, 11.9, 12.87, 13.18, 12.33, 9.95, 8.2, 6.77, 5.18, 3.9, 4.4, 4.77, 4.4, 4.34, 4.47, 4.47, 4.47, 4.47, 3.82, 3.58, 3.58, 3.58, 3.58, 4.05, 4.05, 4.05, 4.05, 3.83, 4.08, 3.4, 2.75, 2.75, 2.75, 2.96, 2.77, 3.0, 2.8, 2.8, 2.8, 3.04, 2.36, 2.36, 2.16, 2.32, 1.8, 1.65, 1.76, 1.76, 1.2, 1.2, 1.2, 1.2, 1.12, 1.65, 1.65, 1.12, 1.14, 0.57, 0.57, 0.56, 1.09, 1.71, 2.23, 2.92, 2.96, 2.77, 3.0, 2.8, 3.0, 3.45, 3.45, 3.45, 3.45, 3.47, 3.72, 3.45, 3.45, 3.45, 4.1, 4.1, 4.75, 4.47, 4.39, 4.12, 4.1, 4.1, 6.01, 6.63, 7.44, 6.64, 6.32, 6.01, 5.89, 6.01, 6.39, 7.02, 7.59, 7.59, 8.6, 10.58, 11.54, 12.16, 12.72, 12.23, 9.87, 7.73, 5.59, 4.02, 4.0, 4.47, 4.34, 4.02, 4.02, 4.02, 4.02, 4.02, 3.58, 3.58, 4.47, 4.47, 4.47, 3.6, 3.6, 4.05, 3.83, 4.08, 3.64, 2.96, 2.96, 2.96, 2.96, 2.77, 2.77, 3.0, 2.8, 2.32, 2.32, 2.36, 2.36, 2.36, 2.16, 2.32, 1.8, 1.65, 1.76, 1.76, 1.2, 1.2, 1.2, 1.2, 1.12, 1.65, 1.65, 1.65, 1.65, 1.12, 1.2, 1.1, 1.73, 1.73, 2.26, 2.26, 2.96, 2.77, 3.0, 2.8, 2.8, 3.45, 3.45, 3.45, 3.47, 3.47, 3.47, 3.47, 3.45, 3.45, 4.1, 4.1, 4.1, 4.1, 4.12, 4.12, 3.45, 3.68, 4.12, 6.32, 6.32, 6.01, 5.89, 5.59, 6.01, 7.21, 6.73, 6.64, 6.95, 7.27, 7.59, 8.12, 9.48, 10.51, 11.47, 12.23, 10.87, 8.49, 5.82, 3.16, 3.16, 2.97, 3.58, 4.02, 4.02, 4.47, 3.13, 3.58, 3.58, 4.34, 5.36, 5.36, 5.36, 3.6, 3.6, 3.4, 3.4, 3.64, 3.42, 2.96, 2.96, 2.77, 2.77, 2.77, 3.0, 2.8, 2.32, 2.32, 2.32, 2.36, 2.36, 2.36, 2.36, 2.16, 1.8, 1.8, 1.65, 1.76, 1.76, 1.2, 1.2, 1.2, 1.65, 1.65, 1.65, 1.65, 1.65, 1.65, 1.76, 1.76, 1.63, 1.63, 2.44, 2.29, 2.77, 3.0, 2.8, 2.8, 2.8, 2.8, 3.22, 3.47, 3.47, 3.47, 3.47, 3.47, 3.47, 3.72, 3.45, 3.85, 4.1, 3.85, 4.12, 3.72, 3.45, 3.72, 4.45, 5.06, 6.3, 5.72, 6.01, 6.73, 6.39, 6.39, 7.06, 6.64, 6.64, 7.35, 7.27, 7.48, 8.42, 9.17, 9.89, 10.25, 10.71, 9.17, 5.75, 1.8, 1.8, 2.21, 2.21, 3.2, 4.92, 4.02, 3.13, 3.58, 3.82, 5.2, 6.64, 6.64, 6.64, 3.6, 3.6, 3.4, 3.4, 3.42, 2.96, 2.77, 2.29, 2.29, 2.49, 2.32, 2.8, 2.32, 2.32, 2.8, 2.8, 2.82, 2.82, 2.36, 2.36, 2.16, 2.32, 1.8, 1.65, 1.65, 1.76, 1.76, 1.76, 1.76, 1.65, 1.65, 1.65, 1.65, 1.65, 1.65, 1.65, 1.76, 1.76, 1.76, 2.29, 2.29, 2.29, 2.32, 2.32, 2.8, 2.8, 3.04, 3.04, 3.04, 3.04, 3.04, 3.04, 2.82, 3.04, 3.47, 3.47, 3.45, 3.45, 4.12, 4.12, 3.47, 3.72, 3.47, 4.74, 5.35, 6.95, 6.32, 7.44, 7.81, 6.73, 6.73, 7.06, 6.64, 6.64, 7.35, 7.27, 7.48, 8.53, 8.85, 8.42, 8.66, 9.89, 9.17, 5.75, 0.98, 0.88, 1.13, 1.13, 1.8, 3.13, 2.68, 3.13, 3.58, 3.82, 5.73, 7.6, 7.6, 7.6, 3.6, 3.6, 3.4, 3.4, 3.42, 2.96, 2.77, 2.77, 2.49, 2.32, 2.32, 2.32, 2.8, 2.8, 2.8, 3.04, 2.82, 2.82, 2.82, 2.36, 2.36, 2.16, 1.8, 1.8, 1.65, 1.76, 1.76, 1.76, 1.76, 1.65, 1.65, 1.65, 1.65, 1.65, 1.65, 1.65, 1.76, 1.76, 1.76, 2.29, 2.29, 2.32, 2.32, 2.32, 2.8, 2.8, 3.04, 2.82, 2.82, 2.82, 2.82, 2.82, 2.82, 2.82, 3.47, 3.47, 3.47, 3.72, 3.72, 3.47, 3.47, 3.47, 3.49, 4.71, 5.29, 7.56, 7.21, 7.81, 7.21, 6.73, 6.73, 6.73, 6.73, 7.41, 7.35, 7.68, 7.97, 8.53, 8.85, 8.42, 8.42, 8.95, 9.17, 5.43, 0.98, 0.81, 0.98, 1.13, -0.0, -0.0, 2.68, 3.13, 3.58, 4.77, 6.64, 8.94, 8.94, 8.94, 3.6, 3.6, 3.4, 3.42, 3.42, 2.96, 2.77, 2.77, 2.8, 2.32, 2.32, 2.8, 2.8, 2.8, 2.8, 3.04, 3.04, 2.82, 2.82, 2.36, 2.36, 2.16, 1.67, 1.8, 1.65, 1.65, 1.76, 1.76, 1.65, 1.65, 1.65, 1.65, 1.65, 1.65, 1.65, 1.65, 1.76, 1.65, 1.65, 1.65, 2.32, 2.32, 2.32, 2.8, 2.8, 3.04, 2.82, 2.82, 2.82, 2.82, 2.82, 2.82, 3.08, 3.08, 2.82, 3.47, 3.47, 3.47, 3.47, 3.47, 3.47, 3.49, 3.49, 4.11, 5.29, 6.79, 7.15, 7.15, 7.15, 6.73, 7.15, 6.79, 7.44, 7.41, 7.76, 8.38, 8.31, 8.64, 8.93, 8.85, 8.53, 8.12, 9.17, 6.79, 1.98, 0.88, 1.4, -0.0, -0.0, -0.0, 1.2, 3.13, 4.24, 5.4, 7.6, 9.39, 9.39, 9.39, 3.4, 3.4, 3.4, 3.42, 3.42, 3.42, 2.77, 2.77, 3.0, 2.8, 2.8, 2.8, 2.8, 2.8, 2.8, 3.04, 3.04, 2.82, 2.82, 2.36, 2.36, 2.36, 1.67, 1.8, 1.8, 1.65, 1.65, 1.65, 1.65, 1.65, 1.65, 1.65, 1.8, 1.8, 1.65, 1.65, 1.65, 1.65, 1.8, 1.8, 1.8, 2.32, 2.32, 3.04, 3.04, 2.82, 2.82, 2.82, 2.82, 2.82, 2.82, 2.82, 3.08, 3.08, 3.08, 2.82, 3.47, 3.47, 3.47, 3.49, 3.49, 3.49, 3.49, 3.79, 5.01, 6.45, 7.15, 7.44, 7.81, 7.81, 7.81, 7.15, 6.79, 7.41, 7.76, 8.03, 8.38, 8.64, 8.22, 8.53, 7.78, 7.9, 7.78, 6.83, 4.92, 2.0, 1.4, 1.2, 1.4, 2.21, 2.21, 3.13, 4.0, 6.45, 8.94, 10.25, 10.25, 10.25, 3.4, 3.4, 3.4, 3.42, 3.42, 3.42, 3.21, 3.0, 3.0, 2.8, 2.8, 2.8, 2.8, 2.8, 2.8, 3.04, 3.04, 2.82, 2.82, 2.36, 2.36, 2.36, 1.67, 1.67, 1.8, 1.65, 1.65, 1.65, 1.65, 1.65, 1.65, 1.65, 1.8, 1.8, 1.8, 1.12, 1.12, 1.65, 1.8, 1.8, 1.8, 2.16, 2.36, 2.36, 2.36, 2.82, 2.82, 2.36, 2.36, 2.36, 2.82, 3.08, 3.08, 2.84, 3.08, 3.08, 2.82, 3.47, 3.22, 3.49, 3.49, 2.84, 3.49, 4.07, 4.37, 5.29, 6.55, 7.42, 7.81, 8.43, 7.76, 7.81, 7.81, 7.44, 7.41, 8.12, 8.38, 8.31, 7.9, 7.9, 7.9, 7.59, 7.13, 6.7, 2.53, 0.88, 1.2, 1.9, 2.8, 4.02, 4.02, 4.38, 5.4, 7.54, 9.83, 10.25, 10.25, 10.25, 3.4, 3.4, 3.4, 3.42, 3.42, 3.42, 3.21, 3.45, 3.0, 2.8, 2.8, 2.8, 2.8, 2.8, 2.8, 3.04, 3.04, 2.82, 2.82, 2.36, 2.36, 2.36, 1.67, 1.67, 1.8, 1.8, 1.65, 1.12, 1.12, 1.12, 1.65, 1.8, 1.8, 1.8, 1.23, 1.23, 1.23, 1.23, 1.14, 1.67, 1.67, 2.36, 2.36, 2.36, 2.18, 2.18, 2.36, 2.36, 2.18, 2.4, 2.84, 2.84, 2.84, 2.84, 2.84, 3.08, 2.82, 2.82, 3.49, 3.49, 2.84, 3.12, 2.86, 3.79, 4.41, 5.01, 6.6, 7.2, 7.82, 7.81, 7.41, 8.43, 8.43, 8.43, 7.81, 7.76, 8.38, 7.59, 8.02, 7.68, 7.68, 7.27, 6.7, 5.24, 1.8, -0.0, -0.0, -0.0, 2.4, 4.02, 4.82, 5.09, 6.45, 8.45, 10.28, 10.69, 10.69, 10.69, 3.4, 3.4, 3.64, 3.42, 3.42, 3.42, 3.42, 3.45, 3.45, 3.45, 2.8, 2.8, 2.8, 2.8, 2.8, 2.8, 3.04, 2.82, 2.82, 2.36, 2.36, 2.36, 1.67, 1.67, 1.67, 1.23, 1.23, 1.12, 1.12, 1.23, 1.23, 1.23, 1.23, 1.23, 1.23, 1.23, 1.14, 1.14, 1.14, 1.67, 1.84, 2.36, 2.36, 2.18, 2.4, 2.4, 2.18, 2.4, 2.4, 2.84, 2.84, 2.84, 2.84, 2.84, 2.84, 2.84, 3.08, 3.08, 3.08, 2.84, 3.12, 2.86, 2.86, 3.48, 4.07, 4.65, 5.08, 5.47, 7.2, 7.15, 7.44, 7.81, 8.43, 8.82, 8.43, 8.43, 8.42, 8.79, 8.42, 8.12, 7.68, 7.59, 6.0, 4.58, -0.0, -0.0, -0.0, -0.0, 2.4, 3.39, 4.0, 4.6, 6.88, 9.39, 10.69, 10.6, 10.6, 10.6, 3.4, 3.4, 3.42, 3.42, 3.42, 3.42, 3.68, 3.45, 3.45, 3.45, 3.45, 3.0, 2.8, 2.8, 2.8, 2.8, 3.04, 2.82, 2.82, 2.36, 2.36, 2.36, 1.84, 1.67, 1.67, 1.14, 1.23, 1.23, 1.23, 1.23, 1.14, 1.14, 1.14, 1.14, 1.14, 1.14, 1.14, 1.14, 1.67, 1.84, 1.7, 1.7, 2.18, 2.18, 2.4, 2.4, 2.4, 2.4, 2.4, 2.4, 2.4, 2.4, 2.84, 2.84, 2.84, 2.84, 2.84, 3.08, 3.08, 2.84, 2.86, 2.86, 2.86, 3.15, 3.48, 4.07, 4.55, 5.08, 6.55, 6.79, 7.15, 7.44, 7.81, 8.18, 7.81, 7.82, 8.43, 8.82, 8.42, 8.42, 8.12, 7.68, 6.84, 5.21, 0.0, -1.99, -0.0, -0.0, 1.79, 2.4, 2.84, 4.6, 7.85, 9.83, 10.58, 10.6, 10.6, 10.6, 3.64, 3.64, 3.42, 3.42, 3.42, 3.42, 3.68, 3.45, 3.45, 3.45, 3.45, 3.0, 3.0, 2.8, 2.8, 2.8, 3.04, 3.04, 2.36, 2.36, 2.36, 2.36, 1.84, 1.67, 1.14, 1.14, 1.14, 1.14, 1.14, 1.14, 1.14, 1.14, 1.14, 0.58, 0.58, 0.58, 0.58, 1.14, 1.67, 1.7, 1.7, 1.88, 1.88, 1.88, 1.88, 2.2, 2.2, 2.2, 2.4, 2.4, 2.4, 2.4, 2.84, 2.84, 2.84, 2.84, 2.84, 2.84, 2.84, 3.12, 2.86, 2.44, 2.48, 2.86, 3.48, 4.0, 4.37, 4.55, 5.21, 6.45, 6.79, 7.82, 7.44, 7.81, 7.81, 7.2, 6.82, 7.81, 7.41, 7.76, 7.76, 7.13, 6.57, 5.86, 1.98, -2.84, -1.8, -0.0, 0.0, 0.0, 2.84, 5.75, 8.36, 9.83, 10.58, 10.6, 10.6, 10.6, 3.42, 3.42, 3.42, 3.42, 3.42, 3.68, 3.45, 3.45, 3.45, 3.45, 3.0, 3.0, 2.8, 2.8, 2.8, 2.8, 2.8, 2.54, 2.36, 2.36, 2.36, 1.84, 1.84, 1.14, 1.14, 1.14, 1.14, 0.58, 0.58, 0.58, 0.58, 0.58, 0.58, 0.58, 0.58, 0.58, 0.58, 1.05, 1.16, 1.16, 1.73, 1.73, 1.73, 1.73, 1.73, 2.2, 2.2, 2.2, 2.2, 2.2, 2.2, 3.12, 2.84, 2.84, 2.84, 2.84, 2.86, 2.84, 2.84, 2.84, 2.86, 2.22, 2.48, 2.48, 2.86, 3.43, 3.78, 4.37, 4.65, 6.55, 7.2, 7.2, 7.15, 7.81, 7.15, 7.2, 6.18, 6.82, 6.79, 6.73, 6.95, 6.31, 5.76, 5.25, 3.39, 0.0, -2.98, -2.8, -2.24, 1.2, 4.22, 7.89, 9.72, 9.8, 9.97, 10.45, 10.45, 10.45, 3.42, 3.42, 3.42, 3.68, 3.45, 3.45, 3.45, 3.45, 3.45, 3.0, 2.8, 2.8, 2.8, 2.8, 2.8, 2.8, 2.32, 2.36, 2.36, 2.36, 1.84, 1.84, 1.84, 1.14, 1.14, 0.58, 0.58, 0.58, 0.58, 0.58, 0.58, 0.58, 0.58, 0.58, 0.0, 0.58, 0.53, 0.59, 1.16, 1.19, 1.19, 1.19, 1.76, 1.76, 1.76, 2.44, 2.44, 2.44, 2.44, 2.44, 2.86, 3.12, 2.84, 2.84, 2.4, 2.4, 2.44, 2.86, 2.84, 2.84, 2.86, 2.22, 2.48, 2.48, 2.48, 3.16, 3.43, 4.0, 4.55, 6.6, 6.82, 6.82, 6.79, 7.15, 7.15, 6.44, 5.77, 5.06, 6.11, 5.89, 5.21, 5.06, 4.44, 4.06, 4.1, 1.68, 0.0, -1.9, 0.0, 3.58, 6.94, 9.08, 9.54, 9.35, 9.75, 10.6, 10.6, 10.6, 3.42, 3.42, 3.45, 3.45, 3.45, 3.45, 3.45, 3.0, 2.8, 2.8, 2.8, 2.8, 2.8, 2.32, 2.32, 2.32, 2.16, 2.36, 2.36, 1.84, 1.84, 1.7, 1.16, 1.05, 0.58, 0.58, 0.58, 0.58, 0.58, 0.53, 0.53, 0.0, 0.0, 0.0, 0.0, 0.0, 0.0, 0.54, 0.61, 1.19, 1.19, 1.08, 1.76, 1.76, 1.76, 2.22, 2.44, 2.44, 2.44, 2.86, 2.86, 2.86, 2.4, 2.2, 2.2, 2.2, 2.44, 2.44, 2.44, 2.84, 2.86, 2.44, 2.22, 2.48, 2.48, 2.48, 2.86, 3.48, 4.0, 4.37, 4.65, 5.37, 6.11, 6.45, 6.45, 5.69, 4.95, 4.42, 4.26, 4.74, 4.56, 4.4, 4.13, 4.06, 4.1, 3.42, 2.57, 1.63, 3.47, 6.08, 8.24, 8.8, 8.63, 8.9, 9.66, 10.32, 10.32, 10.32, 3.45, 3.45, 3.45, 3.45, 3.45, 3.0, 2.8, 2.8, 2.8, 2.8, 2.8, 2.32, 2.32, 2.16, 2.16, 2.16, 2.36, 2.36, 1.84, 1.84, 1.84, 1.16, 1.16, 1.05, 0.58, 0.58, 0.58, 0.53, 0.53, 0.53, 0.0, 0.0, 0.0, 0.0, 0.0, 0.0, 0.0, 0.0, 0.61, 0.55, 1.08, 1.23, 1.76, 1.76, 1.76, 2.22, 2.22, 2.44, 2.44, 2.86, 3.12, 2.2, 2.2, 2.2, 2.2, 2.2, 2.44, 2.44, 2.44, 2.44, 2.44, 2.44, 2.44, 2.44, 2.44, 2.22, 2.86, 3.15, 3.48, 3.79, 3.79, 5.37, 5.37, 5.59, 4.68, 4.42, 4.42, 3.6, 3.27, 3.45, 4.2, 4.07, 4.13, 4.33, 4.98, 5.11, 4.44, 4.56, 5.49, 7.69, 8.3, 7.69, 7.35, 8.01, 9.08, 9.74, 9.74, 9.74, 3.0, 3.0, 3.0, 2.8, 2.8, 2.8, 2.8, 2.8, 2.32, 2.32, 2.32, 2.16, 2.16, 2.16, 2.36, 2.36, 2.36, 1.84, 1.84, 1.84, 1.26, 1.26, 1.05, 0.53, 0.53, 0.53, 0.53, 0.59, 0.0, 0.0, 0.0, 0.0, 0.0, 0.0, 0.0, 0.0, 0.0, 0.0, 0.0, 0.55, 0.55, 1.23, 1.23, 1.76, 1.76, 1.76, 2.22, 2.44, 2.44, 2.84, 2.84, 2.4, 2.4, 2.2, 1.73, 1.73, 1.73, 1.94, 1.94, 2.2, 2.2, 2.2, 2.44, 2.44, 2.44, 2.44, 2.44, 2.86, 2.86, 3.49, 3.49, 3.78, 3.49, 4.0, 4.26, 4.03, 4.03, 3.6, 3.45, 3.63, 3.49, 4.07, 4.13, 4.17, 5.8, 5.67, 5.72, 6.15, 7.27, 7.68, 7.76, 6.73, 6.4, 7.55, 8.55, 9.42, 9.42, 9.42, 3.0, 3.0, 3.0, 2.8, 2.8, 2.8, 2.8, 2.8, 2.32, 2.32, 2.32, 2.16, 2.16, 2.16, 2.36, 2.36, 2.36, 1.84, 1.84, 1.84, 1.26, 1.26, 1.05, 0.53, 0.53, 0.53, 0.53, 0.59, 0.0, 0.0, 0.0, 0.0, 0.0, 0.0, 0.0, 0.0, 0.0, 0.0, 0.0, 0.55, 0.55, 1.23, 1.23, 1.76, 1.76, 1.76, 2.22, 2.44, 2.44, 2.84, 2.84, 2.4, 2.4, 2.2, 1.73, 1.73, 1.73, 1.94, 1.94, 2.2, 2.2, 2.2, 2.44, 2.44, 2.44, 2.44, 2.44, 2.86, 2.86, 3.49, 3.49, 3.78, 3.49, 4.0, 4.26, 4.03, 3.4, 3.6, 3.45, 3.63, 3.49, 4.4, 4.44, 5.0, 5.93, 6.65, 7.63, 7.64, 7.48, 7.59, 6.95, 6.01, 6.57, 7.54, 8.4, 9.42, 9.42, 9.42]}]